| time (UTC) | temp C | wind direction | speed KPH | gust KPH | rain 1hr cm | rain 24hr cm | rain mn cm | humidity % | barometer mb |
| 20260507131121 | 15 | 55 | 1.6 | 6.4 | 0.05 | 0.05 | 0.05 | 85 | 1013.7 |
| 20260507131042 | 15 | 43 | 1.6 | 6.4 | 0.05 | 0.05 | 0.05 | 85 | 1013.7 |
| 20260507130920 | 15 | 47 | 1.6 | 8.0 | 0.05 | 0.05 | 0.05 | 84 | 1013.7 |
| 20260507130822 | 15 | 49 | 1.6 | 8.0 | 0.05 | 0.05 | 0.05 | 84 | 1013.7 |
| 20260507130720 | 15 | 139 | 1.6 | 8.0 | 0.05 | 0.05 | 0.05 | 84 | 1013.7 |
| 20260507130621 | 15 | 139 | 1.6 | 8.0 | 0.05 | 0.05 | 0.05 | 84 | 1013.7 |
| 20260507130527 | 15 | 139 | 1.6 | 8.0 | 0.05 | 0.05 | 0.05 | 85 | 1013.7 |
| 20260507130421 | 15 | 137 | 1.6 | 8.0 | 0.05 | 0.05 | 0.05 | 85 | 1013.9 |
| 20260507130319 | 15 | 136 | 1.6 | 8.0 | 0.05 | 0.05 | 0.05 | 85 | 1013.7 |
| 20260507130222 | 15 | 150 | 1.6 | 8.0 | 0.05 | 0.05 | 0.05 | 87 | 1013.8 |
| 20260507130040 | 15 | 150 | 1.6 | 8.0 | 0.05 | 0.05 | 0.05 | 88 | 1013.8 |
| 20260507125820 | 14 | 125 | 0.0 | 3.2 | 0.05 | 0.05 | 0.05 | 88 | 1013.9 |
| 20260507125619 | 14 | 120 | 0.0 | 3.2 | 0.05 | 0.05 | 0.05 | 88 | 1013.7 |
| 20260507125530 | 14 | 120 | 0.0 | 0.0 | 0.05 | 0.05 | 0.05 | 88 | 1013.8 |
| 20260507125418 | 14 | 120 | 0.0 | 0.0 | 0.05 | 0.05 | 0.05 | 89 | 1013.8 |
| 20260507125320 | 14 | 120 | 0.0 | 1.6 | 0.05 | 0.05 | 0.05 | 89 | 1013.8 |
| 20260507125218 | 14 | 120 | 0.0 | 3.2 | 0.05 | 0.05 | 0.05 | 89 | 1013.8 |
| 20260507125120 | 14 | 120 | 0.0 | 3.2 | 0.05 | 0.05 | 0.05 | 89 | 1013.7 |
| 20260507125041 | 14 | 120 | 0.0 | 3.2 | 0.05 | 0.05 | 0.05 | 89 | 1013.9 |
| 20260507124922 | 14 | 120 | 0.0 | 3.2 | 0.05 | 0.05 | 0.05 | 89 | 1013.9 |
| 20260507124820 | 14 | 120 | 0.0 | 3.2 | 0.05 | 0.05 | 0.05 | 89 | 1013.9 |
| 20260507124718 | 14 | 120 | 0.0 | 3.2 | 0.05 | 0.05 | 0.05 | 88 | 1014.0 |
| 20260507124619 | 14 | 120 | 0.0 | 3.2 | 0.05 | 0.05 | 0.05 | 89 | 1013.9 |
| 20260507124529 | 14 | 120 | 0.0 | 3.2 | 0.05 | 0.05 | 0.05 | 89 | 1013.9 |
| 20260507124419 | 14 | 120 | 0.0 | 3.2 | 0.05 | 0.05 | 0.05 | 89 | 1014.0 |
| 20260507124218 | 14 | 119 | 0.0 | 3.2 | 0.05 | 0.05 | 0.05 | 87 | 1013.9 |
| 20260507124120 | 14 | 119 | 1.6 | 3.2 | 0.05 | 0.05 | 0.05 | 87 | 1014.0 |
| 20260507124042 | 14 | 119 | 1.6 | 3.2 | 0.05 | 0.05 | 0.05 | 87 | 1013.8 |
| 20260507123920 | 14 | 119 | 1.6 | 4.8 | 0.05 | 0.05 | 0.05 | 87 | 1013.8 |
| 20260507123820 | 14 | 153 | 1.6 | 6.4 | 0.05 | 0.05 | 0.05 | 87 | 1013.8 |
| 20260507123719 | 14 | 153 | 1.6 | 6.4 | 0.05 | 0.05 | 0.05 | 87 | 1013.9 |
| 20260507123619 | 14 | 153 | 1.6 | 6.4 | 0.05 | 0.05 | 0.05 | 87 | 1013.9 |
| 20260507123529 | 14 | 153 | 1.6 | 6.4 | 0.05 | 0.05 | 0.05 | 88 | 1013.9 |
| 20260507123419 | 14 | 183 | 3.2 | 6.4 | 0.05 | 0.05 | 0.05 | 87 | 1014.0 |
| 20260507123219 | 14 | 184 | 3.2 | 6.4 | 0.05 | 0.05 | 0.05 | 86 | 1014.0 |
| 20260507123120 | 14 | 184 | 3.2 | 6.4 | 0.05 | 0.05 | 0.05 | 85 | 1014.0 |
| 20260507123035 | 14 | 183 | 3.2 | 6.4 | 0.05 | 0.05 | 0.05 | 85 | 1014.0 |
| 20260507122920 | 15 | 183 | 3.2 | 6.4 | 0.05 | 0.05 | 0.05 | 86 | 1014.0 |
| 20260507122820 | 15 | 182 | 1.6 | 6.4 | 0.03 | 0.03 | 0.03 | 86 | 1014.0 |
| 20260507122718 | 15 | 182 | 1.6 | 6.4 | 0.03 | 0.03 | 0.03 | 85 | 1014.0 |
| 20260507122529 | 15 | 183 | 1.6 | 6.4 | 0.00 | 0.00 | 0.00 | 85 | 1014.0 |
| 20260507122418 | 15 | 186 | 1.6 | 6.4 | 0.00 | 0.00 | 0.00 | 84 | 1014.0 |
| 20260507122218 | 15 | 194 | 0.0 | 4.8 | 0.00 | 0.00 | 0.00 | 83 | 1013.9 |
| 20260507122120 | 15 | 234 | 0.0 | 4.8 | 0.00 | 0.00 | 0.00 | 83 | 1013.9 |
| 20260507122036 | 15 | 236 | 0.0 | 4.8 | 0.00 | 0.00 | 0.00 | 83 | 1014.0 |
| 20260507121921 | 15 | 296 | 1.6 | 4.8 | 0.00 | 0.00 | 0.00 | 82 | 1013.8 |
| 20260507121820 | 15 | 296 | 1.6 | 8.0 | 0.00 | 0.00 | 0.00 | 82 | 1013.9 |
| 20260507121718 | 15 | 296 | 1.6 | 8.0 | 0.00 | 0.00 | 0.00 | 82 | 1014.0 |
| 20260507121619 | 15 | 297 | 1.6 | 8.0 | 0.00 | 0.00 | 0.00 | 82 | 1013.8 |
| 20260507121529 | 15 | 80 | 1.6 | 8.0 | 0.00 | 0.00 | 0.00 | 82 | 1013.8 |
| 20260507121319 | 15 | 80 | 3.2 | 8.0 | 0.00 | 0.00 | 0.00 | 81 | 1013.8 |
| 20260507121221 | 15 | 82 | 3.2 | 8.0 | 0.00 | 0.00 | 0.00 | 81 | 1013.8 |
| 20260507121120 | 15 | 82 | 3.2 | 8.0 | 0.00 | 0.00 | 0.00 | 82 | 1013.9 |
| 20260507121039 | 15 | 82 | 4.8 | 8.0 | 0.00 | 0.00 | 0.00 | 82 | 1013.9 |
| 20260507120921 | 15 | 88 | 4.8 | 8.0 | 0.00 | 0.00 | 0.00 | 81 | 1013.8 |
| 20260507120821 | 15 | 84 | 4.8 | 12.9 | 0.00 | 0.00 | 0.00 | 81 | 1013.9 |
| 20260507120719 | 15 | 71 | 4.8 | 12.9 | 0.00 | 0.00 | 0.00 | 82 | 1013.8 |
| 20260507120619 | 15 | 98 | 6.4 | 12.9 | 0.00 | 0.00 | 0.00 | 82 | 1013.8 |
| 20260507120419 | 15 | 62 | 8.0 | 17.7 | 0.00 | 0.00 | 0.00 | 82 | 1014.0 |
| 20260507120219 | 15 | 52 | 9.7 | 17.7 | 0.00 | 0.00 | 0.00 | 81 | 1013.8 |
| 20260507120039 | 15 | 39 | 9.7 | 17.7 | 0.00 | 0.00 | 0.00 | 82 | 1014.0 |
| 20260507115920 | 15 | 48 | 9.7 | 17.7 | 0.00 | 0.00 | 0.00 | 82 | 1014.0 |
| 20260507115720 | 15 | 62 | 11.3 | 17.7 | 0.00 | 0.00 | 0.00 | 81 | 1013.9 |
| 20260507115619 | 15 | 46 | 11.3 | 17.7 | 0.00 | 0.00 | 0.00 | 81 | 1013.9 |
| 20260507115531 | 15 | 49 | 9.7 | 17.7 | 0.00 | 0.00 | 0.00 | 81 | 1013.9 |
| 20260507115420 | 15 | 41 | 9.7 | 19.3 | 0.00 | 0.00 | 0.00 | 81 | 1013.9 |
| 20260507115322 | 15 | 51 | 9.7 | 19.3 | 0.00 | 0.00 | 0.00 | 80 | 1014.0 |
| 20260507115220 | 15 | 72 | 8.0 | 19.3 | 0.00 | 0.00 | 0.00 | 80 | 1013.9 |
| 20260507115118 | 15 | 67 | 8.0 | 19.3 | 0.00 | 0.00 | 0.00 | 80 | 1014.0 |
| 20260507115039 | 15 | 61 | 8.0 | 19.3 | 0.00 | 0.00 | 0.00 | 80 | 1014.0 |
| 20260507114921 | 15 | 55 | 6.4 | 19.3 | 0.00 | 0.00 | 0.00 | 79 | 1013.9 |
| 20260507114818 | 15 | 62 | 6.4 | 19.3 | 0.00 | 0.00 | 0.00 | 79 | 1014.0 |
| 20260507114720 | 15 | 59 | 6.4 | 19.3 | 0.00 | 0.00 | 0.00 | 79 | 1014.1 |
| 20260507114619 | 15 | 30 | 4.8 | 17.7 | 0.00 | 0.00 | 0.00 | 80 | 1014.0 |
| 20260507114527 | 15 | 28 | 4.8 | 9.7 | 0.00 | 0.00 | 0.00 | 79 | 1014.0 |
| 20260507114320 | 15 | 327 | 6.4 | 11.3 | 0.00 | 0.00 | 0.00 | 79 | 1013.8 |
| 20260507114220 | 15 | 333 | 6.4 | 11.3 | 0.00 | 0.00 | 0.00 | 79 | 1013.8 |
| 20260507114119 | 15 | 65 | 6.4 | 11.3 | 0.00 | 0.00 | 0.00 | 80 | 1014.0 |
| 20260507114036 | 15 | 49 | 6.4 | 11.3 | 0.00 | 0.00 | 0.00 | 79 | 1013.9 |
| 20260507113921 | 15 | 24 | 6.4 | 11.3 | 0.00 | 0.00 | 0.00 | 79 | 1014.0 |
| 20260507113819 | 15 | 22 | 6.4 | 11.3 | 0.00 | 0.00 | 0.00 | 79 | 1014.1 |
| 20260507113720 | 15 | 28 | 6.4 | 11.3 | 0.00 | 0.00 | 0.00 | 78 | 1014.0 |
| 20260507113528 | 15 | 53 | 4.8 | 12.9 | 0.00 | 0.00 | 0.00 | 78 | 1014.1 |
| 20260507113321 | 16 | 54 | 4.8 | 12.9 | 0.00 | 0.00 | 0.00 | 79 | 1014.0 |
| 20260507113220 | 16 | 47 | 4.8 | 12.9 | 0.00 | 0.00 | 0.00 | 80 | 1014.1 |
| 20260507113119 | 16 | 16 | 6.4 | 12.9 | 0.00 | 0.00 | 0.00 | 79 | 1014.0 |
| 20260507113036 | 15 | 360 | 6.4 | 12.9 | 0.00 | 0.00 | 0.00 | 78 | 1014.1 |
| 20260507112921 | 16 | 355 | 6.4 | 12.9 | 0.00 | 0.00 | 0.00 | 79 | 1014.0 |
| 20260507112818 | 16 | 20 | 6.4 | 12.9 | 0.00 | 0.00 | 0.00 | 79 | 1014.0 |
| 20260507112720 | 16 | 15 | 4.8 | 12.9 | 0.00 | 0.00 | 0.00 | 78 | 1014.1 |
| 20260507112618 | 16 | 40 | 4.8 | 12.9 | 0.00 | 0.00 | 0.00 | 79 | 1014.0 |
| 20260507112528 | 16 | 30 | 4.8 | 12.9 | 0.00 | 0.00 | 0.00 | 78 | 1014.0 |
| 20260507112321 | 16 | 32 | 3.2 | 12.9 | 0.00 | 0.00 | 0.00 | 78 | 1013.9 |
| 20260507112118 | 16 | 47 | 3.2 | 8.0 | 0.00 | 0.00 | 0.00 | 78 | 1013.9 |
| 20260507112036 | 16 | 360 | 3.2 | 8.0 | 0.00 | 0.00 | 0.00 | 78 | 1014.0 |
| 20260507111921 | 16 | 54 | 3.2 | 6.4 | 0.00 | 0.00 | 0.00 | 78 | 1014.0 |
| 20260507111802 | 16 | 5 | 1.6 | 6.4 | 0.00 | 0.00 | 0.00 | 78 | 1014.1 |
| 20260507111703 | 16 | 58 | 1.6 | 6.4 | 0.00 | 0.00 | 0.00 | 78 | 1014.0 |
| 20260507111602 | 16 | 91 | 3.2 | 6.4 | 0.00 | 0.00 | 0.00 | 78 | 1014.1 |
| 20260507111506 | 16 | 92 | 3.2 | 8.0 | 0.00 | 0.00 | 0.00 | 78 | 1014.0 |
| 20260507111402 | 16 | 262 | 3.2 | 9.7 | 0.00 | 0.00 | 0.00 | 78 | 1014.0 |
| 20260507111320 | 16 | 265 | 3.2 | 9.7 | 0.00 | 0.00 | 0.00 | 77 | 1014.0 |
| 20260507111219 | 16 | 263 | 3.2 | 9.7 | 0.00 | 0.00 | 0.00 | 77 | 1014.2 |
| 20260507111121 | 16 | 259 | 3.2 | 9.7 | 0.00 | 0.00 | 0.00 | 77 | 1014.0 |
| 20260507111037 | 16 | 279 | 3.2 | 9.7 | 0.00 | 0.00 | 0.00 | 78 | 1014.0 |
| 20260507110819 | 16 | 30 | 3.2 | 9.7 | 0.00 | 0.00 | 0.00 | 78 | 1014.1 |
| 20260507110720 | 16 | 31 | 4.8 | 9.7 | 0.00 | 0.00 | 0.00 | 78 | 1014.0 |
| 20260507110619 | 16 | 36 | 3.2 | 9.7 | 0.00 | 0.00 | 0.00 | 78 | 1014.0 |
| 20260507110528 | 16 | 35 | 3.2 | 8.0 | 0.00 | 0.00 | 0.00 | 78 | 1014.0 |
| 20260507110303 | 16 | 61 | 3.2 | 6.4 | 0.00 | 0.00 | 0.00 | 77 | 1014.0 |
| 20260507110203 | 16 | 69 | 3.2 | 6.4 | 0.00 | 0.00 | 0.00 | 77 | 1014.1 |
| 20260507110031 | 16 | 5 | 3.2 | 6.4 | 0.00 | 0.00 | 0.00 | 77 | 1014.1 |
| 20260507105921 | 16 | 5 | 3.2 | 9.7 | 0.00 | 0.00 | 0.00 | 77 | 1014.1 |
| 20260507105818 | 16 | 47 | 3.2 | 9.7 | 0.00 | 0.00 | 0.00 | 77 | 1014.1 |
| 20260507105718 | 16 | 22 | 3.2 | 9.7 | 0.00 | 0.00 | 0.00 | 78 | 1014.1 |
| 20260507105618 | 16 | 42 | 3.2 | 9.7 | 0.00 | 0.00 | 0.00 | 77 | 1014.1 |
| 20260507105529 | 16 | 42 | 3.2 | 9.7 | 0.00 | 0.00 | 0.00 | 77 | 1014.1 |
| 20260507105418 | 16 | 42 | 3.2 | 9.7 | 0.00 | 0.00 | 0.00 | 77 | 1014.1 |
| 20260507105319 | 16 | 28 | 3.2 | 9.7 | 0.00 | 0.00 | 0.00 | 77 | 1014.0 |
| 20260507105120 | 16 | 246 | 3.2 | 9.7 | 0.00 | 0.00 | 0.00 | 77 | 1014.1 |
| 20260507105036 | 16 | 343 | 3.2 | 9.7 | 0.00 | 0.00 | 0.00 | 77 | 1014.1 |
| 20260507104819 | 16 | 50 | 3.2 | 9.7 | 0.00 | 0.00 | 0.00 | 76 | 1014.0 |
| 20260507104620 | 16 | 27 | 4.8 | 9.7 | 0.00 | 0.00 | 0.00 | 77 | 1014.1 |
| 20260507104527 | 16 | 273 | 4.8 | 12.9 | 0.00 | 0.00 | 0.00 | 76 | 1014.0 |
| 20260507104419 | 16 | 313 | 4.8 | 12.9 | 0.00 | 0.00 | 0.00 | 76 | 1014.1 |
| 20260507104321 | 16 | 267 | 4.8 | 12.9 | 0.00 | 0.00 | 0.00 | 75 | 1014.0 |
| 20260507104218 | 16 | 11 | 4.8 | 12.9 | 0.00 | 0.00 | 0.00 | 75 | 1014.0 |
| 20260507104039 | 16 | 334 | 4.8 | 12.9 | 0.00 | 0.00 | 0.00 | 75 | 1014.1 |
| 20260507103920 | 16 | 26 | 4.8 | 12.9 | 0.00 | 0.00 | 0.00 | 75 | 1014.1 |
| 20260507103818 | 16 | 19 | 4.8 | 12.9 | 0.00 | 0.00 | 0.00 | 75 | 1014.0 |
| 20260507103619 | 16 | 39 | 4.8 | 9.7 | 0.00 | 0.00 | 0.00 | 73 | 1014.0 |
| 20260507103527 | 16 | 42 | 3.2 | 9.7 | 0.00 | 0.00 | 0.00 | 75 | 1014.1 |
| 20260507103419 | 16 | 267 | 3.2 | 9.7 | 0.00 | 0.00 | 0.00 | 74 | 1014.0 |
| 20260507103321 | 16 | 269 | 4.8 | 9.7 | 0.00 | 0.00 | 0.00 | 73 | 1014.0 |
| 20260507103218 | 16 | 302 | 4.8 | 9.7 | 0.00 | 0.00 | 0.00 | 73 | 1014.0 |
| 20260507103120 | 16 | 309 | 3.2 | 9.7 | 0.00 | 0.00 | 0.00 | 73 | 1014.1 |
| 20260507103036 | 16 | 347 | 3.2 | 9.7 | 0.00 | 0.00 | 0.00 | 72 | 1014.0 |
| 20260507102920 | 16 | 34 | 4.8 | 9.7 | 0.00 | 0.00 | 0.00 | 71 | 1014.0 |
| 20260507102819 | 16 | 17 | 4.8 | 9.7 | 0.00 | 0.00 | 0.00 | 72 | 1013.9 |
| 20260507102721 | 16 | 351 | 4.8 | 9.7 | 0.00 | 0.00 | 0.00 | 72 | 1014.1 |
| 20260507102620 | 17 | 341 | 3.2 | 14.5 | 0.00 | 0.00 | 0.00 | 73 | 1014.1 |
| 20260507102527 | 17 | 61 | 3.2 | 14.5 | 0.00 | 0.00 | 0.00 | 72 | 1014.0 |
| 20260507102321 | 17 | 355 | 4.8 | 14.5 | 0.00 | 0.00 | 0.00 | 72 | 1014.0 |
| 20260507102218 | 17 | 302 | 4.8 | 14.5 | 0.00 | 0.00 | 0.00 | 72 | 1014.1 |
| 20260507102120 | 17 | 320 | 4.8 | 14.5 | 0.00 | 0.00 | 0.00 | 72 | 1014.0 |
| 20260507101619 | 17 | 62 | 4.8 | 9.7 | 0.00 | 0.00 | 0.00 | 74 | 1013.9 |
| 20260507101321 | 17 | 44 | 4.8 | 9.7 | 0.00 | 0.00 | 0.00 | 70 | 1014.1 |
| 20260507101202 | 17 | 45 | 4.8 | 9.7 | 0.00 | 0.00 | 0.00 | 71 | 1014.0 |
| 20260507101101 | 17 | 75 | 3.2 | 9.7 | 0.00 | 0.00 | 0.00 | 73 | 1014.0 |
| 20260507100904 | 17 | 41 | 3.2 | 9.7 | 0.00 | 0.00 | 0.00 | 72 | 1014.0 |
| 20260507100801 | 17 | 61 | 3.2 | 9.7 | 0.00 | 0.00 | 0.00 | 71 | 1014.0 |
| 20260507100701 | 17 | 56 | 1.6 | 8.0 | 0.00 | 0.00 | 0.00 | 71 | 1014.0 |
| 20260507100602 | 17 | 66 | 1.6 | 6.4 | 0.00 | 0.00 | 0.00 | 73 | 1014.0 |
| 20260507100504 | 17 | 138 | 1.6 | 4.8 | 0.00 | 0.00 | 0.00 | 71 | 1014.0 |
| 20260507100402 | 16 | 138 | 1.6 | 4.8 | 0.00 | 0.00 | 0.00 | 71 | 1014.0 |
| 20260507100302 | 16 | 138 | 1.6 | 4.8 | 0.00 | 0.00 | 0.00 | 72 | 1014.0 |
| 20260507100006 | 16 | 138 | 1.6 | 4.8 | 0.00 | 0.00 | 0.00 | 70 | 1014.0 |
| 20260507095804 | 16 | 105 | 0.0 | 4.8 | 0.00 | 0.00 | 0.00 | 70 | 1014.2 |
| 20260507095702 | 17 | 111 | 0.0 | 3.2 | 0.00 | 0.00 | 0.00 | 72 | 1014.2 |
| 20260507095602 | 16 | 112 | 0.0 | 1.6 | 0.00 | 0.00 | 0.00 | 71 | 1014.1 |
| 20260507095305 | 16 | 112 | 1.6 | 4.8 | 0.00 | 0.00 | 0.00 | 72 | 1014.1 |
| 20260507095201 | 16 | 112 | 1.6 | 4.8 | 0.00 | 0.00 | 0.00 | 72 | 1014.1 |
| 20260507095002 | 16 | 112 | 1.6 | 4.8 | 0.00 | 0.00 | 0.00 | 74 | 1014.1 |
| 20260507094902 | 16 | 112 | 3.2 | 6.4 | 0.00 | 0.00 | 0.00 | 75 | 1014.1 |
| 20260507094802 | 16 | 112 | 3.2 | 8.0 | 0.00 | 0.00 | 0.00 | 74 | 1014.0 |
| 20260507094401 | 16 | 113 | 4.8 | 8.0 | 0.00 | 0.00 | 0.00 | 74 | 1014.1 |
| 20260507094304 | 16 | 46 | 4.8 | 9.7 | 0.00 | 0.00 | 0.00 | 74 | 1014.0 |
| 20260507094202 | 16 | 43 | 6.4 | 12.9 | 0.00 | 0.00 | 0.00 | 73 | 1014.0 |
| 20260507094101 | 16 | 46 | 6.4 | 12.9 | 0.00 | 0.00 | 0.00 | 72 | 1014.0 |
| 20260507094002 | 16 | 86 | 4.8 | 12.9 | 0.00 | 0.00 | 0.00 | 73 | 1014.0 |
| 20260507093904 | 16 | 84 | 4.8 | 12.9 | 0.00 | 0.00 | 0.00 | 71 | 1014.1 |
| 20260507093802 | 16 | 95 | 4.8 | 12.9 | 0.00 | 0.00 | 0.00 | 71 | 1014.1 |
| 20260507093702 | 16 | 92 | 4.8 | 12.9 | 0.00 | 0.00 | 0.00 | 71 | 1014.1 |
| 20260507093602 | 16 | 75 | 4.8 | 12.9 | 0.00 | 0.00 | 0.00 | 70 | 1014.1 |
| 20260507093505 | 16 | 84 | 3.2 | 12.9 | 0.00 | 0.00 | 0.00 | 73 | 1014.0 |
| 20260507093402 | 16 | 67 | 3.2 | 12.9 | 0.00 | 0.00 | 0.00 | 73 | 1014.1 |
| 20260507093301 | 16 | 61 | 3.2 | 12.9 | 0.00 | 0.00 | 0.00 | 73 | 1014.0 |
| 20260507093204 | 16 | 54 | 3.2 | 12.9 | 0.00 | 0.00 | 0.00 | 72 | 1014.1 |
| 20260507093103 | 16 | 74 | 3.2 | 8.0 | 0.00 | 0.00 | 0.00 | 72 | 1014.1 |
| 20260507093004 | 16 | 148 | 1.6 | 8.0 | 0.00 | 0.00 | 0.00 | 72 | 1014.0 |
| 20260507092901 | 16 | 163 | 1.6 | 8.0 | 0.00 | 0.00 | 0.00 | 71 | 1014.1 |
| 20260507092804 | 16 | 147 | 1.6 | 8.0 | 0.00 | 0.00 | 0.00 | 72 | 1014.0 |
| 20260507092701 | 16 | 111 | 1.6 | 8.0 | 0.00 | 0.00 | 0.00 | 71 | 1014.1 |
| 20260507092602 | 16 | 61 | 1.6 | 8.0 | 0.00 | 0.00 | 0.00 | 71 | 1014.1 |
| 20260507092502 | 16 | 21 | 1.6 | 8.0 | 0.00 | 0.00 | 0.00 | 71 | 1014.1 |
| 20260507092404 | 16 | 34 | 1.6 | 8.0 | 0.00 | 0.00 | 0.00 | 73 | 1014.1 |
| 20260507092302 | 16 | 40 | 1.6 | 8.0 | 0.00 | 0.00 | 0.00 | 73 | 1014.1 |
| 20260507092202 | 16 | 355 | 1.6 | 6.4 | 0.00 | 0.00 | 0.00 | 72 | 1014.0 |
| 20260507092103 | 16 | 229 | 1.6 | 4.8 | 0.00 | 0.00 | 0.00 | 72 | 1014.1 |
| 20260507092002 | 16 | 229 | 1.6 | 4.8 | 0.00 | 0.00 | 0.00 | 71 | 1014.1 |
| 20260507091602 | 16 | 233 | 1.6 | 4.8 | 0.00 | 0.00 | 0.00 | 72 | 1014.1 |
| 20260507091419 | 16 | 233 | 1.6 | 4.8 | 0.00 | 0.00 | 0.00 | 73 | 1014.1 |
| 20260507091320 | 16 | 233 | 1.6 | 4.8 | 0.00 | 0.00 | 0.00 | 72 | 1014.0 |
| 20260507091219 | 16 | 261 | 1.6 | 4.8 | 0.00 | 0.00 | 0.00 | 74 | 1014.1 |
| 20260507091121 | 16 | 161 | 1.6 | 3.2 | 0.00 | 0.00 | 0.00 | 74 | 1014.1 |
| 20260507091039 | 16 | 89 | 1.6 | 8.0 | 0.00 | 0.00 | 0.00 | 74 | 1014.0 |
| 20260507090819 | 16 | 89 | 1.6 | 8.0 | 0.00 | 0.00 | 0.00 | 72 | 1014.0 |
| 20260507090721 | 16 | 89 | 3.2 | 8.0 | 0.00 | 0.00 | 0.00 | 73 | 1014.0 |
| 20260507090619 | 16 | 89 | 3.2 | 8.0 | 0.00 | 0.00 | 0.00 | 72 | 1014.0 |
| 20260507090528 | 16 | 89 | 3.2 | 9.7 | 0.00 | 0.00 | 0.00 | 72 | 1014.1 |
| 20260507090418 | 16 | 30 | 3.2 | 9.7 | 0.00 | 0.00 | 0.00 | 72 | 1014.1 |
| 20260507090319 | 16 | 23 | 3.2 | 9.7 | 0.00 | 0.00 | 0.00 | 72 | 1014.0 |
| 20260507090218 | 16 | 22 | 3.2 | 9.7 | 0.00 | 0.00 | 0.00 | 74 | 1014.1 |
| 20260507090041 | 16 | 5 | 3.2 | 9.7 | 0.00 | 0.00 | 0.00 | 73 | 1014.0 |
| 20260507085918 | 16 | 9 | 3.2 | 9.7 | 0.00 | 0.00 | 0.00 | 73 | 1014.0 |
| 20260507085820 | 16 | 9 | 3.2 | 9.7 | 0.00 | 0.00 | 0.00 | 73 | 1014.0 |
| 20260507085720 | 16 | 38 | 3.2 | 9.7 | 0.00 | 0.00 | 0.00 | 73 | 1014.0 |
| 20260507085619 | 16 | 38 | 3.2 | 6.4 | 0.00 | 0.00 | 0.00 | 74 | 1014.1 |
| 20260507085527 | 16 | 38 | 3.2 | 8.0 | 0.00 | 0.00 | 0.00 | 73 | 1013.9 |
| 20260507085421 | 15 | 40 | 3.2 | 8.0 | 0.00 | 0.00 | 0.00 | 75 | 1014.0 |
| 20260507085318 | 16 | 21 | 3.2 | 8.0 | 0.00 | 0.00 | 0.00 | 75 | 1014.1 |
| 20260507085220 | 15 | 17 | 3.2 | 8.0 | 0.00 | 0.00 | 0.00 | 75 | 1013.9 |
| 20260507085119 | 15 | 17 | 3.2 | 8.0 | 0.00 | 0.00 | 0.00 | 75 | 1014.1 |
| 20260507085037 | 15 | 17 | 3.2 | 8.0 | 0.00 | 0.00 | 0.00 | 74 | 1014.0 |
| 20260507084918 | 15 | 355 | 3.2 | 8.0 | 0.00 | 0.00 | 0.00 | 74 | 1014.0 |
| 20260507084820 | 15 | 355 | 3.2 | 8.0 | 0.00 | 0.00 | 0.00 | 74 | 1014.2 |
| 20260507084720 | 15 | 321 | 3.2 | 8.0 | 0.00 | 0.00 | 0.00 | 74 | 1014.0 |
| 20260507084618 | 15 | 27 | 3.2 | 9.7 | 0.00 | 0.00 | 0.00 | 74 | 1014.1 |
| 20260507084526 | 15 | 25 | 1.6 | 9.7 | 0.00 | 0.00 | 0.00 | 74 | 1014.1 |
| 20260507084318 | 16 | 14 | 1.6 | 9.7 | 0.00 | 0.00 | 0.00 | 74 | 1014.1 |
| 20260507084220 | 15 | 15 | 1.6 | 9.7 | 0.00 | 0.00 | 0.00 | 75 | 1014.0 |
| 20260507084118 | 15 | 36 | 1.6 | 9.7 | 0.00 | 0.00 | 0.00 | 75 | 1014.1 |
| 20260507084037 | 15 | 37 | 1.6 | 9.7 | 0.00 | 0.00 | 0.00 | 74 | 1014.0 |
| 20260507083920 | 15 | 37 | 1.6 | 9.7 | 0.00 | 0.00 | 0.00 | 74 | 1014.0 |
| 20260507083820 | 15 | 46 | 1.6 | 9.7 | 0.00 | 0.00 | 0.00 | 74 | 1014.1 |
| 20260507083720 | 15 | 5 | 1.6 | 4.8 | 0.00 | 0.00 | 0.00 | 75 | 1014.1 |
| 20260507083619 | 15 | 350 | 1.6 | 4.8 | 0.00 | 0.00 | 0.00 | 74 | 1014.0 |
| 20260507083528 | 15 | 258 | 1.6 | 4.8 | 0.00 | 0.00 | 0.00 | 74 | 1013.9 |
| 20260507083318 | 15 | 262 | 1.6 | 4.8 | 0.00 | 0.00 | 0.00 | 74 | 1013.9 |
| 20260507083218 | 15 | 267 | 1.6 | 4.8 | 0.00 | 0.00 | 0.00 | 73 | 1013.8 |
| 20260507083122 | 15 | 267 | 1.6 | 4.8 | 0.00 | 0.00 | 0.00 | 73 | 1013.9 |
| 20260507082918 | 15 | 333 | 1.6 | 4.8 | 0.00 | 0.00 | 0.00 | 74 | 1013.9 |
| 20260507082820 | 15 | 332 | 1.6 | 4.8 | 0.00 | 0.00 | 0.00 | 75 | 1014.0 |
| 20260507082721 | 15 | 329 | 1.6 | 4.8 | 0.00 | 0.00 | 0.00 | 74 | 1014.0 |
| 20260507082618 | 15 | 355 | 3.2 | 4.8 | 0.00 | 0.00 | 0.00 | 74 | 1014.0 |
| 20260507082526 | 15 | 355 | 3.2 | 4.8 | 0.00 | 0.00 | 0.00 | 73 | 1013.9 |
| 20260507082421 | 15 | 355 | 3.2 | 8.0 | 0.00 | 0.00 | 0.00 | 74 | 1013.8 |
| 20260507082318 | 15 | 355 | 3.2 | 8.0 | 0.00 | 0.00 | 0.00 | 74 | 1013.8 |
| 20260507082118 | 15 | 13 | 3.2 | 8.0 | 0.00 | 0.00 | 0.00 | 74 | 1013.9 |
| 20260507082037 | 15 | 340 | 3.2 | 8.0 | 0.00 | 0.00 | 0.00 | 74 | 1013.9 |
| 20260507081719 | 15 | 308 | 4.8 | 9.7 | 0.00 | 0.00 | 0.00 | 74 | 1013.9 |
| 20260507081618 | 16 | 272 | 4.8 | 9.7 | 0.00 | 0.00 | 0.00 | 74 | 1013.8 |
| 20260507081526 | 16 | 300 | 3.2 | 9.7 | 0.00 | 0.00 | 0.00 | 74 | 1013.9 |
| 20260507081421 | 16 | 217 | 4.8 | 9.7 | 0.00 | 0.00 | 0.00 | 74 | 1013.8 |
| 20260507081319 | 16 | 229 | 3.2 | 9.7 | 0.00 | 0.00 | 0.00 | 74 | 1013.8 |
| 20260507081220 | 15 | 321 | 4.8 | 9.7 | 0.00 | 0.00 | 0.00 | 73 | 1013.9 |
| 20260507081118 | 16 | 340 | 4.8 | 9.7 | 0.00 | 0.00 | 0.00 | 74 | 1013.9 |
| 20260507081037 | 16 | 342 | 4.8 | 9.7 | 0.00 | 0.00 | 0.00 | 75 | 1013.9 |
| 20260507080919 | 15 | 121 | 4.8 | 9.7 | 0.00 | 0.00 | 0.00 | 74 | 1013.8 |
| 20260507080820 | 15 | 70 | 4.8 | 9.7 | 0.00 | 0.00 | 0.00 | 75 | 1013.9 |
| 20260507080720 | 15 | 60 | 4.8 | 9.7 | 0.00 | 0.00 | 0.00 | 75 | 1013.9 |
| 20260507080618 | 15 | 58 | 4.8 | 9.7 | 0.00 | 0.00 | 0.00 | 74 | 1013.8 |
| 20260507080526 | 15 | 61 | 4.8 | 9.7 | 0.00 | 0.00 | 0.00 | 74 | 1013.9 |
| 20260507080218 | 15 | 41 | 6.4 | 8.0 | 0.00 | 0.00 | 0.00 | 75 | 1013.7 |
| 20260507080121 | 15 | 59 | 6.4 | 8.0 | 0.00 | 0.00 | 0.00 | 76 | 1013.8 |
| 20260507080042 | 15 | 64 | 6.4 | 8.0 | 0.00 | 0.00 | 0.00 | 76 | 1013.7 |
| 20260507075918 | 15 | 58 | 6.4 | 9.7 | 0.00 | 0.28 | 0.00 | 76 | 1013.8 |
| 20260507075722 | 15 | 360 | 6.4 | 9.7 | 0.00 | 0.28 | 0.00 | 75 | 1013.8 |
| 20260507075618 | 15 | 64 | 6.4 | 9.7 | 0.00 | 0.28 | 0.00 | 76 | 1013.9 |
| 20260507075419 | 15 | 29 | 4.8 | 12.9 | 0.00 | 0.28 | 0.00 | 76 | 1013.8 |
| 20260507075320 | 15 | 59 | 4.8 | 12.9 | 0.00 | 0.28 | 0.00 | 77 | 1013.8 |
| 20260507075218 | 15 | 53 | 4.8 | 12.9 | 0.00 | 0.28 | 0.00 | 75 | 1013.8 |
| 20260507074820 | 15 | 44 | 4.8 | 12.9 | 0.00 | 0.28 | 0.00 | 75 | 1014.0 |
| 20260507074718 | 15 | 27 | 4.8 | 12.9 | 0.00 | 0.28 | 0.00 | 76 | 1013.7 |
| 20260507074528 | 15 | 42 | 4.8 | 12.9 | 0.00 | 0.28 | 0.00 | 76 | 1013.9 |
| 20260507074418 | 15 | 59 | 4.8 | 12.9 | 0.00 | 0.28 | 0.00 | 76 | 1013.8 |
| 20260507074320 | 15 | 46 | 4.8 | 12.9 | 0.00 | 0.28 | 0.00 | 76 | 1013.8 |
| 20260507074218 | 15 | 47 | 4.8 | 12.9 | 0.00 | 0.28 | 0.00 | 75 | 1013.9 |
| 20260507074119 | 15 | 9 | 4.8 | 12.9 | 0.00 | 0.28 | 0.00 | 75 | 1013.9 |
| 20260507073920 | 15 | 35 | 4.8 | 12.9 | 0.00 | 0.28 | 0.00 | 75 | 1014.0 |
| 20260507073819 | 15 | 43 | 4.8 | 8.0 | 0.00 | 0.28 | 0.00 | 76 | 1013.8 |
| 20260507073719 | 15 | 28 | 4.8 | 9.7 | 0.00 | 0.28 | 0.00 | 77 | 1013.8 |
| 20260507073619 | 15 | 42 | 4.8 | 9.7 | 0.00 | 0.28 | 0.00 | 78 | 1013.9 |
| 20260507073528 | 15 | 42 | 4.8 | 9.7 | 0.00 | 0.28 | 0.00 | 79 | 1013.9 |
| 20260507073419 | 15 | 76 | 4.8 | 9.7 | 0.00 | 0.28 | 0.00 | 78 | 1013.8 |
| 20260507073320 | 15 | 81 | 4.8 | 9.7 | 0.00 | 0.28 | 0.00 | 77 | 1013.8 |
| 20260507073218 | 15 | 82 | 4.8 | 9.7 | 0.00 | 0.28 | 0.00 | 78 | 1013.9 |
| 20260507073120 | 14 | 59 | 4.8 | 9.7 | 0.00 | 0.28 | 0.00 | 78 | 1013.9 |
| 20260507073035 | 14 | 51 | 4.8 | 9.7 | 0.00 | 0.28 | 0.00 | 78 | 1013.9 |
| 20260507072920 | 14 | 45 | 4.8 | 9.7 | 0.00 | 0.28 | 0.00 | 78 | 1013.8 |
| 20260507072618 | 14 | 65 | 4.8 | 9.7 | 0.00 | 0.28 | 0.00 | 80 | 1013.8 |
| 20260507072529 | 14 | 59 | 4.8 | 9.7 | 0.00 | 0.28 | 0.00 | 80 | 1013.8 |
| 20260507072419 | 14 | 61 | 4.8 | 9.7 | 0.00 | 0.28 | 0.00 | 79 | 1013.7 |
| 20260507072319 | 13 | 62 | 4.8 | 9.7 | 0.00 | 0.28 | 0.00 | 79 | 1013.8 |
| 20260507072221 | 13 | 34 | 4.8 | 9.7 | 0.00 | 0.28 | 0.00 | 78 | 1013.7 |
| 20260507072038 | 14 | 63 | 4.8 | 8.0 | 0.00 | 0.28 | 0.00 | 77 | 1013.7 |
| 20260507071820 | 14 | 53 | 4.8 | 6.4 | 0.00 | 0.28 | 0.00 | 77 | 1013.7 |
| 20260507071718 | 14 | 41 | 3.2 | 6.4 | 0.00 | 0.28 | 0.00 | 77 | 1013.7 |
| 20260507071618 | 14 | 51 | 3.2 | 6.4 | 0.00 | 0.28 | 0.00 | 77 | 1013.7 |
| 20260507071530 | 14 | 65 | 3.2 | 6.4 | 0.00 | 0.28 | 0.00 | 76 | 1013.7 |
| 20260507071320 | 14 | 70 | 1.6 | 4.8 | 0.00 | 0.28 | 0.00 | 78 | 1013.7 |
| 20260507071119 | 14 | 72 | 1.6 | 4.8 | 0.00 | 0.28 | 0.00 | 77 | 1013.7 |
| 20260507071035 | 14 | 72 | 1.6 | 4.8 | 0.00 | 0.28 | 0.00 | 77 | 1013.6 |
| 20260507070920 | 14 | 70 | 0.0 | 4.8 | 0.00 | 0.28 | 0.00 | 78 | 1013.7 |
| 20260507070819 | 14 | 71 | 0.0 | 4.8 | 0.00 | 0.28 | 0.00 | 79 | 1013.6 |
| 20260507070718 | 14 | 73 | 0.0 | 4.8 | 0.00 | 0.28 | 0.00 | 79 | 1013.7 |
| 20260507070619 | 14 | 84 | 1.6 | 4.8 | 0.00 | 0.28 | 0.00 | 80 | 1013.7 |
| 20260507070529 | 14 | 86 | 1.6 | 4.8 | 0.00 | 0.28 | 0.00 | 81 | 1013.6 |
| 20260507070420 | 14 | 88 | 1.6 | 4.8 | 0.00 | 0.28 | 0.00 | 81 | 1013.6 |
| 20260507070318 | 13 | 88 | 1.6 | 4.8 | 0.00 | 0.28 | 0.00 | 80 | 1013.6 |
| 20260507070219 | 13 | 88 | 3.2 | 6.4 | 0.00 | 0.28 | 0.00 | 81 | 1013.6 |
| 20260507070120 | 13 | 88 | 3.2 | 6.4 | 0.00 | 0.28 | 0.00 | 81 | 1013.6 |
| 20260507070040 | 13 | 77 | 3.2 | 6.4 | 0.00 | 0.28 | 0.00 | 80 | 1013.7 |
| 20260507065919 | 13 | 68 | 3.2 | 6.4 | 0.00 | 0.28 | 0.00 | 81 | 1013.6 |
| 20260507065819 | 13 | 63 | 3.2 | 6.4 | 0.00 | 0.28 | 0.00 | 81 | 1013.6 |
| 20260507065718 | 13 | 60 | 3.2 | 6.4 | 0.00 | 0.28 | 0.00 | 81 | 1013.6 |
| 20260507065621 | 13 | 59 | 3.2 | 6.4 | 0.00 | 0.28 | 0.00 | 81 | 1013.6 |
| 20260507065418 | 13 | 57 | 3.2 | 6.4 | 0.00 | 0.28 | 0.00 | 81 | 1013.5 |
| 20260507065319 | 13 | 56 | 3.2 | 6.4 | 0.00 | 0.28 | 0.00 | 82 | 1013.6 |
| 20260507065120 | 13 | 65 | 3.2 | 6.4 | 0.00 | 0.28 | 0.00 | 82 | 1013.5 |
| 20260507065043 | 13 | 80 | 3.2 | 4.8 | 0.00 | 0.28 | 0.00 | 82 | 1013.6 |
| 20260507064918 | 13 | 92 | 3.2 | 4.8 | 0.00 | 0.28 | 0.00 | 82 | 1013.6 |
| 20260507064719 | 13 | 98 | 3.2 | 4.8 | 0.00 | 0.28 | 0.00 | 82 | 1013.6 |
| 20260507064619 | 13 | 107 | 3.2 | 4.8 | 0.00 | 0.28 | 0.00 | 82 | 1013.6 |
| 20260507064527 | 12 | 111 | 1.6 | 4.8 | 0.00 | 0.28 | 0.00 | 82 | 1013.6 |
| 20260507064319 | 12 | 134 | 1.6 | 4.8 | 0.00 | 0.28 | 0.00 | 82 | 1013.6 |
| 20260507064219 | 12 | 146 | 1.6 | 4.8 | 0.00 | 0.28 | 0.00 | 82 | 1013.6 |
| 20260507064118 | 12 | 150 | 1.6 | 4.8 | 0.00 | 0.28 | 0.00 | 82 | 1013.5 |
| 20260507064038 | 12 | 160 | 0.0 | 4.8 | 0.00 | 0.28 | 0.00 | 82 | 1013.7 |
| 20260507063920 | 12 | 167 | 0.0 | 4.8 | 0.00 | 0.28 | 0.00 | 83 | 1013.7 |
| 20260507063818 | 12 | 249 | 0.0 | 1.6 | 0.00 | 0.28 | 0.00 | 82 | 1013.7 |
| 20260507063621 | 12 | 249 | 0.0 | 1.6 | 0.00 | 0.28 | 0.00 | 81 | 1013.5 |
| 20260507063527 | 12 | 249 | 0.0 | 3.2 | 0.00 | 0.28 | 0.00 | 82 | 1013.5 |
| 20260507063219 | 12 | 249 | 0.0 | 3.2 | 0.00 | 0.28 | 0.00 | 85 | 1013.6 |
| 20260507063118 | 12 | 249 | 0.0 | 3.2 | 0.00 | 0.28 | 0.00 | 85 | 1013.5 |
| 20260507063036 | 12 | 249 | 0.0 | 3.2 | 0.00 | 0.28 | 0.00 | 86 | 1013.5 |
| 20260507062920 | 12 | 249 | 0.0 | 3.2 | 0.00 | 0.28 | 0.00 | 85 | 1013.5 |
| 20260507062818 | 11 | 249 | 0.0 | 3.2 | 0.00 | 0.28 | 0.00 | 87 | 1013.5 |
| 20260507062721 | 11 | 247 | 0.0 | 3.2 | 0.00 | 0.28 | 0.00 | 88 | 1013.4 |
| 20260507062528 | 11 | 245 | 0.0 | 0.0 | 0.00 | 0.28 | 0.00 | 87 | 1013.5 |
| 20260507062418 | 11 | 245 | 0.0 | 0.0 | 0.00 | 0.28 | 0.00 | 87 | 1013.5 |
| 20260507062320 | 11 | 245 | 0.0 | 0.0 | 0.00 | 0.28 | 0.00 | 88 | 1013.5 |
| 20260507062219 | 11 | 245 | 0.0 | 0.0 | 0.00 | 0.28 | 0.00 | 88 | 1013.5 |
| 20260507062120 | 11 | 245 | 0.0 | 0.0 | 0.00 | 0.28 | 0.00 | 89 | 1013.5 |
| 20260507062036 | 11 | 245 | 0.0 | 0.0 | 0.00 | 0.28 | 0.00 | 89 | 1013.5 |
| 20260507061920 | 11 | 245 | 0.0 | 1.6 | 0.00 | 0.28 | 0.00 | 90 | 1013.5 |
| 20260507061818 | 11 | 245 | 0.0 | 1.6 | 0.00 | 0.28 | 0.00 | 90 | 1013.5 |
| 20260507061720 | 10 | 245 | 0.0 | 1.6 | 0.00 | 0.28 | 0.00 | 91 | 1013.5 |
| 20260507061604 | 10 | 245 | 0.0 | 1.6 | 0.00 | 0.28 | 0.00 | 92 | 1013.5 |
| 20260507061409 | 10 | 245 | 0.0 | 3.2 | 0.00 | 0.28 | 0.00 | 92 | 1013.5 |
| 20260507061321 | 10 | 245 | 1.6 | 3.2 | 0.00 | 0.28 | 0.00 | 92 | 1013.5 |
| 20260507061219 | 10 | 245 | 1.6 | 4.8 | 0.00 | 0.28 | 0.00 | 92 | 1013.5 |
| 20260507061004 | 10 | 66 | 1.6 | 4.8 | 0.00 | 0.28 | 0.00 | 93 | 1013.5 |
| 20260507060907 | 10 | 66 | 1.6 | 4.8 | 0.00 | 0.28 | 0.00 | 93 | 1013.5 |
| 20260507060818 | 9 | 66 | 1.6 | 4.8 | 0.00 | 0.28 | 0.00 | 93 | 1013.4 |
| 20260507060721 | 9 | 66 | 1.6 | 4.8 | 0.00 | 0.28 | 0.00 | 93 | 1013.5 |
| 20260507060619 | 9 | 66 | 1.6 | 4.8 | 0.00 | 0.28 | 0.00 | 93 | 1013.5 |
| 20260507060527 | 9 | 66 | 1.6 | 4.8 | 0.00 | 0.28 | 0.00 | 93 | 1013.5 |
| 20260507060419 | 9 | 64 | 1.6 | 4.8 | 0.00 | 0.28 | 0.00 | 93 | 1013.4 |
| 20260507060219 | 9 | 64 | 1.6 | 3.2 | 0.00 | 0.28 | 0.00 | 93 | 1013.4 |
| 20260507060119 | 9 | 64 | 1.6 | 3.2 | 0.00 | 0.28 | 0.00 | 94 | 1013.4 |
| 20260507060040 | 9 | 64 | 1.6 | 3.2 | 0.00 | 0.28 | 0.00 | 94 | 1013.3 |
| 20260507055922 | 8 | 64 | 1.6 | 3.2 | 0.00 | 0.28 | 0.00 | 94 | 1013.4 |
| 20260507055822 | 8 | 65 | 0.0 | 3.2 | 0.00 | 0.28 | 0.00 | 95 | 1013.4 |
| 20260507055618 | 8 | 65 | 0.0 | 1.6 | 0.00 | 0.28 | 0.00 | 95 | 1013.4 |
| 20260507055528 | 8 | 65 | 0.0 | 1.6 | 0.00 | 0.28 | 0.00 | 95 | 1013.3 |
| 20260507055421 | 8 | 65 | 0.0 | 1.6 | 0.00 | 0.28 | 0.00 | 96 | 1013.3 |
| 20260507055318 | 8 | 65 | 0.0 | 1.6 | 0.00 | 0.28 | 0.00 | 96 | 1013.3 |
| 20260507055221 | 8 | 65 | 0.0 | 1.6 | 0.00 | 0.28 | 0.00 | 96 | 1013.3 |
| 20260507055119 | 8 | 65 | 0.0 | 1.6 | 0.00 | 0.28 | 0.00 | 96 | 1013.4 |
| 20260507055036 | 8 | 65 | 0.0 | 1.6 | 0.00 | 0.28 | 0.00 | 96 | 1013.3 |
| 20260507054820 | 8 | 65 | 0.0 | 1.6 | 0.00 | 0.28 | 0.00 | 96 | 1013.3 |
| 20260507054719 | 8 | 115 | 0.0 | 1.6 | 0.00 | 0.28 | 0.00 | 96 | 1013.2 |
| 20260507054619 | 8 | 115 | 0.0 | 1.6 | 0.00 | 0.28 | 0.00 | 96 | 1013.2 |
| 20260507054526 | 8 | 115 | 1.6 | 3.2 | 0.00 | 0.28 | 0.00 | 96 | 1013.2 |
| 20260507054421 | 7 | 115 | 1.6 | 3.2 | 0.00 | 0.28 | 0.00 | 96 | 1013.2 |
| 20260507054303 | 7 | 115 | 1.6 | 3.2 | 0.00 | 0.28 | 0.00 | 96 | 1013.2 |
| 20260507054202 | 7 | 115 | 1.6 | 3.2 | 0.00 | 0.28 | 0.00 | 96 | 1013.1 |
| 20260507054101 | 7 | 115 | 1.6 | 3.2 | 0.00 | 0.28 | 0.00 | 96 | 1013.2 |
| 20260507054002 | 7 | 115 | 1.6 | 3.2 | 0.00 | 0.28 | 0.00 | 96 | 1013.2 |
| 20260507053802 | 7 | 116 | 0.0 | 3.2 | 0.00 | 0.28 | 0.00 | 97 | 1013.1 |
| 20260507053703 | 7 | 116 | 0.0 | 3.2 | 0.00 | 0.28 | 0.00 | 97 | 1013.2 |
| 20260507053503 | 7 | 117 | 0.0 | 3.2 | 0.00 | 0.28 | 0.00 | 97 | 1013.1 |
| 20260507053301 | 7 | 196 | 0.0 | 1.6 | 0.00 | 0.28 | 0.00 | 97 | 1013.2 |
| 20260507053201 | 7 | 196 | 0.0 | 1.6 | 0.00 | 0.28 | 0.00 | 97 | 1013.1 |
| 20260507053104 | 6 | 196 | 0.0 | 1.6 | 0.00 | 0.28 | 0.00 | 97 | 1013.2 |
| 20260507053003 | 6 | 196 | 0.0 | 1.6 | 0.00 | 0.28 | 0.00 | 97 | 1013.2 |
| 20260507052901 | 6 | 196 | 0.0 | 1.6 | 0.00 | 0.28 | 0.00 | 96 | 1013.2 |
| 20260507052803 | 6 | 196 | 0.0 | 1.6 | 0.00 | 0.28 | 0.00 | 97 | 1013.0 |
| 20260507052703 | 6 | 196 | 0.0 | 1.6 | 0.00 | 0.28 | 0.00 | 96 | 1013.0 |
| 20260507052601 | 6 | 196 | 0.0 | 1.6 | 0.00 | 0.28 | 0.00 | 97 | 1013.2 |
| 20260507052502 | 6 | 198 | 0.0 | 1.6 | 0.00 | 0.28 | 0.00 | 96 | 1013.2 |
| 20260507052404 | 6 | 198 | 0.0 | 0.0 | 0.00 | 0.28 | 0.00 | 97 | 1013.1 |
| 20260507052301 | 6 | 198 | 0.0 | 0.0 | 0.00 | 0.28 | 0.00 | 96 | 1013.2 |
| 20260507052201 | 6 | 198 | 0.0 | 0.0 | 0.00 | 0.28 | 0.00 | 96 | 1013.0 |
| 20260507052004 | 5 | 198 | 0.0 | 0.0 | 0.00 | 0.28 | 0.00 | 96 | 1013.1 |
| 20260507051901 | 5 | 198 | 0.0 | 0.0 | 0.00 | 0.28 | 0.00 | 96 | 1013.1 |
| 20260507051801 | 5 | 198 | 0.0 | 0.0 | 0.00 | 0.28 | 0.00 | 96 | 1013.0 |
| 20260507051703 | 5 | 198 | 0.0 | 0.0 | 0.00 | 0.28 | 0.00 | 96 | 1013.0 |
| 20260507051601 | 5 | 198 | 0.0 | 0.0 | 0.00 | 0.28 | 0.00 | 96 | 1013.1 |
| 20260507051501 | 5 | 198 | 0.0 | 0.0 | 0.00 | 0.28 | 0.00 | 96 | 1012.9 |
| 20260507051403 | 5 | 198 | 0.0 | 0.0 | 0.00 | 0.28 | 0.00 | 96 | 1013.0 |
| 20260507051303 | 5 | 198 | 0.0 | 0.0 | 0.00 | 0.28 | 0.00 | 96 | 1013.0 |
| 20260507051201 | 5 | 198 | 0.0 | 0.0 | 0.00 | 0.28 | 0.00 | 96 | 1012.9 |
| 20260507050902 | 5 | 198 | 0.0 | 0.0 | 0.00 | 0.28 | 0.00 | 96 | 1013.0 |
| 20260507050801 | 5 | 198 | 0.0 | 3.2 | 0.00 | 0.28 | 0.00 | 96 | 1012.9 |
| 20260507050701 | 4 | 198 | 0.0 | 3.2 | 0.00 | 0.28 | 0.00 | 96 | 1013.0 |
| 20260507050604 | 4 | 198 | 1.6 | 3.2 | 0.00 | 0.28 | 0.00 | 96 | 1012.9 |
| 20260507050501 | 4 | 198 | 1.6 | 3.2 | 0.00 | 0.28 | 0.00 | 96 | 1012.8 |
| 20260507050303 | 4 | 198 | 1.6 | 3.2 | 0.00 | 0.28 | 0.00 | 96 | 1013.0 |
| 20260507050203 | 4 | 198 | 1.6 | 3.2 | 0.00 | 0.28 | 0.00 | 95 | 1012.9 |
| 20260507050006 | 3 | 198 | 1.6 | 3.2 | 0.00 | 0.28 | 0.00 | 95 | 1013.0 |
| 20260507045903 | 3 | 198 | 1.6 | 3.2 | 0.00 | 0.30 | 0.00 | 95 | 1012.9 |
| 20260507045801 | 3 | 198 | 0.0 | 3.2 | 0.00 | 0.30 | 0.00 | 95 | 1012.9 |
| 20260507045701 | 3 | 198 | 0.0 | 3.2 | 0.00 | 0.30 | 0.00 | 95 | 1012.8 |
| 20260507045603 | 3 | 198 | 0.0 | 3.2 | 0.00 | 0.30 | 0.00 | 95 | 1012.8 |
| 20260507045502 | 3 | 198 | 0.0 | 3.2 | 0.00 | 0.30 | 0.00 | 95 | 1012.9 |
| 20260507045401 | 3 | 198 | 0.0 | 3.2 | 0.00 | 0.30 | 0.00 | 95 | 1012.8 |
| 20260507045301 | 3 | 198 | 0.0 | 0.0 | 0.00 | 0.30 | 0.00 | 95 | 1012.8 |
| 20260507045204 | 3 | 198 | 0.0 | 0.0 | 0.00 | 0.30 | 0.00 | 95 | 1012.8 |
| 20260507045002 | 3 | 198 | 0.0 | 0.0 | 0.00 | 0.30 | 0.00 | 95 | 1012.7 |
| 20260507044901 | 3 | 198 | 0.0 | 0.0 | 0.00 | 0.30 | 0.00 | 95 | 1012.7 |
| 20260507044804 | 3 | 198 | 0.0 | 0.0 | 0.00 | 0.30 | 0.00 | 95 | 1012.7 |
| 20260507044601 | 3 | 198 | 0.0 | 0.0 | 0.00 | 0.30 | 0.00 | 95 | 1012.7 |
| 20260507044502 | 3 | 198 | 0.0 | 0.0 | 0.00 | 0.30 | 0.00 | 95 | 1012.8 |
| 20260507044404 | 3 | 198 | 0.0 | 0.0 | 0.00 | 0.30 | 0.00 | 95 | 1012.7 |
| 20260507044301 | 3 | 198 | 0.0 | 0.0 | 0.00 | 0.30 | 0.00 | 95 | 1012.8 |
| 20260507044201 | 3 | 198 | 0.0 | 0.0 | 0.00 | 0.30 | 0.00 | 95 | 1012.6 |
| 20260507044103 | 3 | 198 | 0.0 | 0.0 | 0.00 | 0.30 | 0.00 | 95 | 1012.7 |
| 20260507044002 | 3 | 198 | 0.0 | 0.0 | 0.00 | 0.30 | 0.00 | 95 | 1012.6 |
| 20260507043902 | 3 | 198 | 0.0 | 0.0 | 0.00 | 0.30 | 0.00 | 95 | 1012.6 |
| 20260507043704 | 3 | 198 | 0.0 | 0.0 | 0.00 | 0.30 | 0.00 | 95 | 1012.6 |
| 20260507043602 | 3 | 198 | 0.0 | 0.0 | 0.00 | 0.30 | 0.00 | 95 | 1012.5 |
| 20260507043403 | 3 | 198 | 0.0 | 0.0 | 0.00 | 0.30 | 0.00 | 95 | 1012.6 |
| 20260507043202 | 3 | 198 | 0.0 | 0.0 | 0.00 | 0.30 | 0.00 | 95 | 1012.6 |
| 20260507043101 | 3 | 198 | 0.0 | 0.0 | 0.00 | 0.30 | 0.00 | 95 | 1012.6 |
| 20260507042901 | 3 | 198 | 0.0 | 0.0 | 0.00 | 0.30 | 0.00 | 95 | 1012.6 |
| 20260507042801 | 3 | 198 | 0.0 | 0.0 | 0.00 | 0.30 | 0.00 | 95 | 1012.5 |
| 20260507042701 | 3 | 198 | 0.0 | 0.0 | 0.00 | 0.30 | 0.00 | 95 | 1012.6 |
| 20260507042501 | 3 | 198 | 0.0 | 0.0 | 0.00 | 0.30 | 0.00 | 95 | 1012.4 |
| 20260507042401 | 3 | 198 | 0.0 | 0.0 | 0.00 | 0.30 | 0.00 | 95 | 1012.5 |
| 20260507042204 | 3 | 198 | 0.0 | 0.0 | 0.00 | 0.30 | 0.00 | 95 | 1012.4 |
| 20260507042002 | 3 | 198 | 0.0 | 0.0 | 0.00 | 0.30 | 0.00 | 95 | 1012.4 |
| 20260507041901 | 3 | 198 | 0.0 | 0.0 | 0.00 | 0.30 | 0.00 | 95 | 1012.4 |
| 20260507041803 | 3 | 198 | 0.0 | 0.0 | 0.00 | 0.30 | 0.00 | 95 | 1012.4 |
| 20260507041701 | 3 | 198 | 0.0 | 0.0 | 0.00 | 0.30 | 0.00 | 95 | 1012.4 |
| 20260507041601 | 3 | 198 | 0.0 | 0.0 | 0.00 | 0.30 | 0.00 | 95 | 1012.3 |
| 20260507041501 | 3 | 198 | 0.0 | 0.0 | 0.00 | 0.30 | 0.00 | 95 | 1012.4 |
| 20260507041404 | 3 | 198 | 0.0 | 0.0 | 0.00 | 0.30 | 0.00 | 95 | 1012.3 |
| 20260507041301 | 3 | 198 | 0.0 | 0.0 | 0.00 | 0.30 | 0.00 | 95 | 1012.3 |
| 20260507041202 | 3 | 198 | 0.0 | 0.0 | 0.00 | 0.30 | 0.00 | 95 | 1012.3 |
| 20260507041101 | 3 | 198 | 0.0 | 0.0 | 0.00 | 0.30 | 0.00 | 95 | 1012.4 |
| 20260507041005 | 3 | 198 | 0.0 | 0.0 | 0.00 | 0.30 | 0.00 | 95 | 1012.3 |
| 20260507040902 | 3 | 198 | 0.0 | 0.0 | 0.00 | 0.30 | 0.00 | 95 | 1012.2 |
| 20260507040801 | 3 | 198 | 0.0 | 0.0 | 0.00 | 0.30 | 0.00 | 95 | 1012.3 |
| 20260507040703 | 3 | 198 | 0.0 | 0.0 | 0.00 | 0.30 | 0.00 | 95 | 1012.3 |
| 20260507040501 | 3 | 198 | 0.0 | 0.0 | 0.00 | 0.30 | 0.00 | 95 | 1012.3 |
| 20260507040403 | 3 | 198 | 0.0 | 0.0 | 0.00 | 0.30 | 0.00 | 95 | 1012.3 |
| 20260507040202 | 3 | 198 | 0.0 | 0.0 | 0.00 | 0.30 | 0.00 | 95 | 1012.3 |
| 20260507040008 | 3 | 198 | 0.0 | 0.0 | 0.00 | 0.30 | 0.00 | 95 | 1012.3 |
| 20260507035903 | 3 | 198 | 0.0 | 0.0 | 0.00 | 0.43 | 0.00 | 95 | 1012.4 |
| 20260507035702 | 3 | 198 | 0.0 | 0.0 | 0.00 | 0.43 | 0.00 | 95 | 1012.2 |
| 20260507035602 | 3 | 198 | 0.0 | 0.0 | 0.00 | 0.43 | 0.00 | 95 | 1012.4 |
| 20260507035502 | 3 | 198 | 0.0 | 0.0 | 0.00 | 0.43 | 0.00 | 95 | 1012.4 |
| 20260507035404 | 3 | 198 | 0.0 | 0.0 | 0.00 | 0.43 | 0.00 | 95 | 1012.3 |
| 20260507035203 | 3 | 198 | 0.0 | 0.0 | 0.00 | 0.43 | 0.00 | 95 | 1012.4 |
| 20260507035101 | 3 | 198 | 0.0 | 0.0 | 0.00 | 0.43 | 0.00 | 95 | 1012.3 |
| 20260507035002 | 3 | 198 | 0.0 | 0.0 | 0.00 | 0.43 | 0.00 | 95 | 1012.3 |
| 20260507034902 | 3 | 198 | 0.0 | 0.0 | 0.00 | 0.43 | 0.00 | 95 | 1012.4 |
| 20260507034804 | 3 | 198 | 0.0 | 0.0 | 0.00 | 0.43 | 0.00 | 95 | 1012.3 |
| 20260507034702 | 3 | 198 | 0.0 | 0.0 | 0.00 | 0.43 | 0.00 | 95 | 1012.3 |
| 20260507034601 | 3 | 197 | 0.0 | 0.0 | 0.00 | 0.43 | 0.00 | 95 | 1012.3 |
| 20260507034502 | 3 | 197 | 0.0 | 0.0 | 0.00 | 0.43 | 0.00 | 95 | 1012.2 |
| 20260507034404 | 3 | 197 | 0.0 | 0.0 | 0.00 | 0.43 | 0.00 | 95 | 1012.4 |
| 20260507034301 | 3 | 197 | 0.0 | 0.0 | 0.00 | 0.43 | 0.00 | 95 | 1012.1 |
| 20260507034203 | 3 | 197 | 0.0 | 0.0 | 0.00 | 0.43 | 0.00 | 95 | 1012.1 |
| 20260507034102 | 3 | 197 | 0.0 | 0.0 | 0.00 | 0.43 | 0.00 | 95 | 1012.1 |
| 20260507034002 | 3 | 197 | 0.0 | 0.0 | 0.00 | 0.43 | 0.00 | 95 | 1012.2 |
| 20260507033803 | 3 | 197 | 0.0 | 0.0 | 0.00 | 0.43 | 0.00 | 95 | 1012.3 |
| 20260507033702 | 3 | 197 | 0.0 | 0.0 | 0.00 | 0.43 | 0.00 | 95 | 1012.2 |
| 20260507033501 | 3 | 197 | 0.0 | 0.0 | 0.00 | 0.43 | 0.00 | 95 | 1012.2 |
| 20260507033404 | 3 | 197 | 0.0 | 0.0 | 0.00 | 0.43 | 0.00 | 95 | 1012.2 |
| 20260507033301 | 3 | 197 | 0.0 | 0.0 | 0.00 | 0.43 | 0.00 | 95 | 1012.3 |
| 20260507033103 | 3 | 197 | 0.0 | 0.0 | 0.00 | 0.43 | 0.00 | 95 | 1012.1 |
| 20260507033002 | 3 | 197 | 0.0 | 0.0 | 0.00 | 0.43 | 0.00 | 95 | 1012.1 |
| 20260507032901 | 3 | 197 | 0.0 | 0.0 | 0.00 | 0.43 | 0.00 | 95 | 1012.2 |
| 20260507032801 | 3 | 197 | 0.0 | 0.0 | 0.00 | 0.43 | 0.00 | 95 | 1012.1 |
| 20260507032704 | 3 | 197 | 0.0 | 0.0 | 0.00 | 0.43 | 0.00 | 95 | 1012.3 |
| 20260507032601 | 3 | 197 | 0.0 | 0.0 | 0.00 | 0.43 | 0.00 | 95 | 1012.2 |
| 20260507032502 | 3 | 197 | 0.0 | 0.0 | 0.00 | 0.43 | 0.00 | 95 | 1012.1 |
| 20260507032403 | 3 | 197 | 0.0 | 0.0 | 0.00 | 0.43 | 0.00 | 95 | 1012.1 |
| 20260507032102 | 3 | 197 | 0.0 | 0.0 | 0.00 | 0.43 | 0.00 | 95 | 1012.1 |
| 20260507031903 | 3 | 196 | 0.0 | 0.0 | 0.00 | 0.43 | 0.00 | 95 | 1012.1 |
| 20260507031703 | 3 | 196 | 0.0 | 0.0 | 0.00 | 0.43 | 0.00 | 95 | 1012.1 |
| 20260507031602 | 3 | 196 | 0.0 | 0.0 | 0.00 | 0.43 | 0.00 | 95 | 1012.1 |
| 20260507031501 | 3 | 196 | 0.0 | 0.0 | 0.00 | 0.43 | 0.00 | 95 | 1012.1 |
| 20260507031403 | 3 | 196 | 0.0 | 0.0 | 0.00 | 0.43 | 0.00 | 95 | 1012.2 |
| 20260507031302 | 3 | 196 | 0.0 | 0.0 | 0.00 | 0.43 | 0.00 | 95 | 1012.3 |
| 20260507031203 | 3 | 196 | 0.0 | 0.0 | 0.00 | 0.43 | 0.00 | 95 | 1012.3 |
| 20260507031101 | 3 | 196 | 0.0 | 0.0 | 0.00 | 0.43 | 0.00 | 95 | 1012.2 |
| 20260507031002 | 3 | 196 | 0.0 | 0.0 | 0.00 | 0.43 | 0.00 | 95 | 1012.0 |
| 20260507030901 | 3 | 196 | 0.0 | 0.0 | 0.00 | 0.43 | 0.00 | 95 | 1012.0 |
| 20260507030803 | 3 | 196 | 0.0 | 0.0 | 0.00 | 0.43 | 0.00 | 95 | 1012.2 |
| 20260507030601 | 3 | 196 | 0.0 | 0.0 | 0.00 | 0.43 | 0.00 | 95 | 1012.2 |
| 20260507030501 | 3 | 196 | 0.0 | 0.0 | 0.00 | 0.43 | 0.00 | 95 | 1012.1 |
| 20260507030302 | 3 | 196 | 0.0 | 0.0 | 0.00 | 0.43 | 0.00 | 95 | 1012.3 |
| 20260507030201 | 3 | 196 | 0.0 | 0.0 | 0.00 | 0.43 | 0.00 | 95 | 1012.2 |
| 20260507030101 | 3 | 196 | 0.0 | 0.0 | 0.00 | 0.43 | 0.00 | 95 | 1012.3 |
| 20260507030008 | 3 | 196 | 0.0 | 0.0 | 0.00 | 0.43 | 0.00 | 95 | 1012.3 |
| 20260507025901 | 3 | 196 | 0.0 | 0.0 | 0.00 | 0.76 | 0.00 | 95 | 1012.3 |
| 20260507025801 | 3 | 196 | 0.0 | 0.0 | 0.00 | 0.76 | 0.00 | 95 | 1012.2 |
| 20260507025702 | 3 | 196 | 0.0 | 0.0 | 0.00 | 0.76 | 0.00 | 94 | 1012.2 |
| 20260507025502 | 3 | 196 | 0.0 | 0.0 | 0.00 | 0.76 | 0.00 | 94 | 1012.2 |
| 20260507025403 | 3 | 196 | 0.0 | 0.0 | 0.00 | 0.76 | 0.00 | 94 | 1012.1 |
| 20260507025301 | 3 | 196 | 0.0 | 0.0 | 0.00 | 0.76 | 0.00 | 94 | 1012.2 |
| 20260507025203 | 3 | 196 | 0.0 | 0.0 | 0.00 | 0.76 | 0.00 | 95 | 1012.1 |
| 20260507025101 | 3 | 196 | 0.0 | 0.0 | 0.00 | 0.76 | 0.00 | 95 | 1012.2 |
| 20260507024901 | 3 | 196 | 0.0 | 0.0 | 0.00 | 0.76 | 0.00 | 95 | 1012.2 |
| 20260507024702 | 3 | 196 | 0.0 | 0.0 | 0.00 | 0.76 | 0.00 | 95 | 1012.2 |
| 20260507024601 | 3 | 196 | 0.0 | 0.0 | 0.00 | 0.76 | 0.00 | 95 | 1012.1 |
| 20260507024404 | 3 | 196 | 0.0 | 0.0 | 0.00 | 0.76 | 0.00 | 95 | 1012.1 |
| 20260507024302 | 3 | 196 | 0.0 | 0.0 | 0.00 | 0.76 | 0.00 | 95 | 1012.1 |
| 20260507024202 | 3 | 196 | 0.0 | 0.0 | 0.00 | 0.76 | 0.00 | 95 | 1012.1 |
| 20260507024103 | 3 | 196 | 0.0 | 0.0 | 0.00 | 0.76 | 0.00 | 94 | 1012.1 |
| 20260507024004 | 3 | 196 | 0.0 | 0.0 | 0.00 | 0.76 | 0.00 | 95 | 1012.1 |
| 20260507023801 | 3 | 196 | 0.0 | 0.0 | 0.00 | 0.76 | 0.00 | 95 | 1012.2 |
| 20260507023601 | 3 | 196 | 0.0 | 0.0 | 0.00 | 0.76 | 0.00 | 95 | 1012.1 |
| 20260507023503 | 3 | 196 | 0.0 | 0.0 | 0.00 | 0.76 | 0.00 | 95 | 1012.1 |
| 20260507022801 | 3 | 196 | 0.0 | 0.0 | 0.00 | 0.76 | 0.00 | 95 | 1012.2 |
| 20260507022703 | 3 | 196 | 0.0 | 0.0 | 0.00 | 0.76 | 0.00 | 95 | 1012.1 |
| 20260507022501 | 3 | 196 | 0.0 | 0.0 | 0.00 | 0.76 | 0.00 | 95 | 1012.2 |
| 20260507022201 | 3 | 196 | 0.0 | 1.6 | 0.00 | 0.76 | 0.00 | 94 | 1012.0 |
| 20260507022101 | 3 | 196 | 0.0 | 1.6 | 0.00 | 0.76 | 0.00 | 94 | 1012.1 |
| 20260507022004 | 3 | 196 | 0.0 | 1.6 | 0.00 | 0.76 | 0.00 | 94 | 1012.0 |
| 20260507021901 | 3 | 196 | 0.0 | 1.6 | 0.00 | 0.76 | 0.00 | 94 | 1012.0 |
| 20260507021801 | 3 | 197 | 0.0 | 1.6 | 0.00 | 0.76 | 0.00 | 95 | 1012.1 |
| 20260507021703 | 3 | 197 | 0.0 | 3.2 | 0.00 | 0.76 | 0.00 | 95 | 1012.0 |
| 20260507021603 | 3 | 196 | 1.6 | 3.2 | 0.00 | 0.76 | 0.00 | 95 | 1011.9 |
| 20260507021502 | 3 | 197 | 1.6 | 3.2 | 0.00 | 0.76 | 0.00 | 95 | 1012.0 |
| 20260507021401 | 3 | 197 | 1.6 | 3.2 | 0.00 | 0.76 | 0.00 | 95 | 1012.0 |
| 20260507021303 | 3 | 197 | 1.6 | 3.2 | 0.00 | 0.76 | 0.00 | 95 | 1011.9 |
| 20260507021004 | 3 | 197 | 1.6 | 3.2 | 0.00 | 0.76 | 0.00 | 94 | 1012.0 |
| 20260507020903 | 3 | 197 | 1.6 | 3.2 | 0.00 | 0.76 | 0.00 | 94 | 1012.0 |
| 20260507020701 | 3 | 197 | 1.6 | 3.2 | 0.00 | 0.76 | 0.00 | 94 | 1011.9 |
| 20260507020603 | 3 | 197 | 1.6 | 3.2 | 0.00 | 0.76 | 0.00 | 94 | 1012.0 |
| 20260507020501 | 3 | 197 | 0.0 | 3.2 | 0.00 | 0.76 | 0.00 | 94 | 1011.9 |
| 20260507020301 | 4 | 197 | 0.0 | 1.6 | 0.00 | 0.76 | 0.00 | 95 | 1012.0 |
| 20260507020201 | 4 | 197 | 0.0 | 1.6 | 0.00 | 0.76 | 0.00 | 95 | 1011.9 |
| 20260507020101 | 4 | 196 | 0.0 | 1.6 | 0.00 | 0.76 | 0.00 | 95 | 1012.0 |
| 20260507020009 | 4 | 196 | 0.0 | 1.6 | 0.00 | 0.76 | 0.00 | 95 | 1012.0 |
| 20260507015901 | 4 | 197 | 0.0 | 1.6 | 0.00 | 0.79 | 0.00 | 95 | 1012.0 |
| 20260507015801 | 4 | 197 | 0.0 | 1.6 | 0.00 | 0.79 | 0.00 | 95 | 1012.0 |
| 20260507015702 | 4 | 196 | 0.0 | 1.6 | 0.00 | 0.79 | 0.00 | 95 | 1012.0 |
| 20260507015501 | 4 | 197 | 0.0 | 1.6 | 0.00 | 0.79 | 0.00 | 94 | 1012.0 |
| 20260507015306 | 3 | 196 | 0.0 | 1.6 | 0.00 | 0.79 | 0.00 | 94 | 1012.0 |
| 20260507015200 | 3 | 197 | 0.0 | 1.6 | 0.00 | 0.79 | 0.00 | 94 | 1011.9 |
| 20260507015101 | 3 | 196 | 0.0 | 1.6 | 0.00 | 0.79 | 0.00 | 94 | 1011.9 |
| 20260507015002 | 3 | 197 | 0.0 | 1.6 | 0.00 | 0.79 | 0.00 | 94 | 1011.9 |
| 20260507014904 | 3 | 197 | 0.0 | 1.6 | 0.00 | 0.79 | 0.00 | 94 | 1011.8 |
| 20260507014701 | 3 | 197 | 0.0 | 1.6 | 0.00 | 0.79 | 0.00 | 94 | 1012.0 |
| 20260507014603 | 3 | 196 | 0.0 | 1.6 | 0.00 | 0.79 | 0.00 | 94 | 1011.9 |
| 20260507014501 | 3 | 196 | 0.0 | 1.6 | 0.00 | 0.79 | 0.00 | 94 | 1011.9 |
| 20260507014400 | 3 | 197 | 0.0 | 1.6 | 0.00 | 0.79 | 0.00 | 94 | 1011.8 |
| 20260507014204 | 3 | 197 | 0.0 | 1.6 | 0.00 | 0.79 | 0.00 | 94 | 1012.0 |
| 20260507014100 | 3 | 197 | 0.0 | 3.2 | 0.00 | 0.79 | 0.00 | 94 | 1012.0 |
| 20260507014001 | 4 | 197 | 0.0 | 3.2 | 0.00 | 0.79 | 0.00 | 94 | 1011.9 |
| 20260507013903 | 4 | 197 | 0.0 | 3.2 | 0.00 | 0.79 | 0.00 | 94 | 1011.9 |
| 20260507013802 | 4 | 197 | 0.0 | 3.2 | 0.00 | 0.79 | 0.00 | 94 | 1011.9 |
| 20260507013700 | 4 | 197 | 0.0 | 3.2 | 0.00 | 0.79 | 0.00 | 94 | 1011.9 |
| 20260507013601 | 4 | 197 | 0.0 | 3.2 | 0.00 | 0.79 | 0.00 | 94 | 1011.9 |
| 20260507013501 | 3 | 197 | 0.0 | 3.2 | 0.00 | 0.79 | 0.00 | 94 | 1012.0 |
| 20260507013402 | 3 | 197 | 0.0 | 3.2 | 0.00 | 0.79 | 0.00 | 94 | 1012.0 |
| 20260507013202 | 3 | 197 | 0.0 | 3.2 | 0.00 | 0.79 | 0.00 | 94 | 1012.0 |
| 20260507013101 | 3 | 196 | 0.0 | 3.2 | 0.00 | 0.79 | 0.00 | 94 | 1012.0 |
| 20260507013001 | 3 | 196 | 0.0 | 3.2 | 0.00 | 0.79 | 0.00 | 94 | 1011.9 |
| 20260507012903 | 3 | 196 | 0.0 | 3.2 | 0.00 | 0.79 | 0.00 | 94 | 1012.0 |
| 20260507012800 | 3 | 196 | 0.0 | 3.2 | 0.00 | 0.79 | 0.00 | 94 | 1012.0 |
| 20260507012702 | 3 | 196 | 0.0 | 3.2 | 0.00 | 0.79 | 0.00 | 94 | 1012.0 |
| 20260507012601 | 4 | 197 | 0.0 | 3.2 | 0.00 | 0.79 | 0.00 | 94 | 1012.1 |
| 20260507012401 | 3 | 196 | 0.0 | 3.2 | 0.00 | 0.79 | 0.00 | 94 | 1012.1 |
| 20260507012001 | 3 | 196 | 0.0 | 0.0 | 0.00 | 0.79 | 0.00 | 94 | 1012.1 |
| 20260507011903 | 3 | 196 | 0.0 | 0.0 | 0.00 | 0.79 | 0.00 | 94 | 1012.1 |
| 20260507011800 | 4 | 196 | 0.0 | 0.0 | 0.00 | 0.79 | 0.00 | 94 | 1012.2 |
| 20260507011700 | 4 | 196 | 0.0 | 0.0 | 0.00 | 0.79 | 0.00 | 94 | 1012.1 |
| 20260507011601 | 4 | 196 | 0.0 | 0.0 | 0.00 | 0.79 | 0.00 | 94 | 1012.1 |
| 20260507011504 | 4 | 196 | 0.0 | 0.0 | 0.00 | 0.79 | 0.00 | 94 | 1012.2 |
| 20260507011300 | 4 | 196 | 0.0 | 0.0 | 0.00 | 0.79 | 0.00 | 94 | 1012.1 |
| 20260507011202 | 4 | 196 | 0.0 | 0.0 | 0.00 | 0.79 | 0.00 | 94 | 1012.1 |
| 20260507011001 | 4 | 196 | 0.0 | 0.0 | 0.00 | 0.79 | 0.00 | 94 | 1012.0 |
| 20260507010901 | 4 | 196 | 0.0 | 0.0 | 0.00 | 0.79 | 0.00 | 94 | 1012.1 |
| 20260507010601 | 4 | 196 | 0.0 | 0.0 | 0.00 | 0.79 | 0.00 | 94 | 1012.0 |
| 20260507010500 | 4 | 196 | 0.0 | 0.0 | 0.00 | 0.79 | 0.00 | 94 | 1012.1 |
| 20260507010403 | 4 | 196 | 0.0 | 0.0 | 0.00 | 0.79 | 0.00 | 94 | 1012.0 |
| 20260507010300 | 4 | 196 | 0.0 | 0.0 | 0.00 | 0.79 | 0.00 | 94 | 1012.1 |
| 20260507010200 | 4 | 196 | 0.0 | 0.0 | 0.00 | 0.79 | 0.00 | 94 | 1012.0 |
| 20260507010101 | 4 | 196 | 0.0 | 0.0 | 0.00 | 0.79 | 0.00 | 94 | 1011.9 |
| 20260507005900 | 4 | 196 | 0.0 | 0.0 | 0.00 | 0.79 | 0.00 | 94 | 1012.0 |
| 20260507005802 | 4 | 196 | 0.0 | 0.0 | 0.00 | 0.79 | 0.00 | 94 | 1012.0 |
| 20260507005702 | 4 | 196 | 0.0 | 0.0 | 0.00 | 0.79 | 0.00 | 94 | 1012.0 |
| 20260507005601 | 4 | 196 | 0.0 | 0.0 | 0.00 | 0.79 | 0.00 | 94 | 1012.0 |
| 20260507005501 | 4 | 196 | 0.0 | 0.0 | 0.00 | 0.79 | 0.00 | 94 | 1012.0 |
| 20260507005403 | 4 | 196 | 0.0 | 0.0 | 0.00 | 0.79 | 0.00 | 94 | 1012.1 |
| 20260507005201 | 4 | 196 | 0.0 | 0.0 | 0.00 | 0.79 | 0.00 | 94 | 1012.0 |
| 20260507005102 | 4 | 196 | 0.0 | 0.0 | 0.00 | 0.79 | 0.00 | 94 | 1012.0 |
| 20260507005003 | 4 | 196 | 0.0 | 0.0 | 0.00 | 0.79 | 0.00 | 94 | 1012.2 |
| 20260507004800 | 4 | 196 | 0.0 | 0.0 | 0.00 | 0.79 | 0.00 | 94 | 1012.0 |
| 20260507004703 | 4 | 196 | 0.0 | 0.0 | 0.00 | 0.79 | 0.00 | 94 | 1012.1 |
| 20260507004601 | 4 | 196 | 0.0 | 0.0 | 0.00 | 0.79 | 0.00 | 94 | 1012.1 |
| 20260507004527 | 4 | 196 | 0.0 | 0.0 | 0.00 | 0.79 | 0.00 | 94 | 1012.1 |
| 20260507004418 | 4 | 196 | 0.0 | 0.0 | 0.00 | 0.79 | 0.00 | 94 | 1012.0 |
| 20260507004319 | 4 | 196 | 0.0 | 0.0 | 0.00 | 0.79 | 0.00 | 94 | 1012.1 |
| 20260507004217 | 4 | 196 | 0.0 | 0.0 | 0.00 | 0.79 | 0.00 | 94 | 1012.0 |
| 20260507004119 | 4 | 196 | 0.0 | 0.0 | 0.00 | 0.79 | 0.00 | 94 | 1012.0 |
| 20260507004041 | 4 | 196 | 0.0 | 0.0 | 0.00 | 0.79 | 0.00 | 94 | 1012.1 |
| 20260507003917 | 4 | 196 | 0.0 | 0.0 | 0.00 | 0.79 | 0.00 | 94 | 1012.1 |
| 20260507003817 | 4 | 196 | 0.0 | 0.0 | 0.00 | 0.79 | 0.00 | 94 | 1012.1 |
| 20260507003720 | 4 | 196 | 0.0 | 0.0 | 0.00 | 0.79 | 0.00 | 94 | 1012.1 |
| 20260507003618 | 4 | 196 | 0.0 | 0.0 | 0.00 | 0.79 | 0.00 | 94 | 1012.1 |
| 20260507003527 | 4 | 196 | 0.0 | 0.0 | 0.00 | 0.79 | 0.00 | 93 | 1012.0 |
| 20260507003418 | 4 | 196 | 0.0 | 0.0 | 0.00 | 0.79 | 0.00 | 93 | 1012.1 |
| 20260507003318 | 4 | 196 | 0.0 | 0.0 | 0.00 | 0.79 | 0.00 | 93 | 1012.0 |
| 20260507003217 | 4 | 197 | 0.0 | 0.0 | 0.00 | 0.79 | 0.00 | 93 | 1012.1 |
| 20260507003128 | 4 | 197 | 0.0 | 0.0 | 0.00 | 0.79 | 0.00 | 93 | 1012.1 |
| 20260507002917 | 4 | 197 | 0.0 | 0.0 | 0.00 | 0.79 | 0.00 | 93 | 1012.1 |
| 20260507002818 | 4 | 197 | 0.0 | 0.0 | 0.00 | 0.79 | 0.00 | 93 | 1012.1 |
| 20260507002720 | 4 | 197 | 0.0 | 0.0 | 0.00 | 0.79 | 0.00 | 93 | 1012.1 |
| 20260507002527 | 4 | 197 | 0.0 | 0.0 | 0.00 | 0.79 | 0.00 | 93 | 1012.1 |
| 20260507002417 | 4 | 197 | 0.0 | 0.0 | 0.00 | 0.79 | 0.00 | 93 | 1012.1 |
| 20260507002218 | 4 | 197 | 0.0 | 0.0 | 0.00 | 0.79 | 0.00 | 93 | 1012.0 |
| 20260507002119 | 4 | 197 | 0.0 | 0.0 | 0.00 | 0.79 | 0.00 | 93 | 1012.1 |
| 20260507002035 | 4 | 197 | 0.0 | 0.0 | 0.00 | 0.79 | 0.00 | 93 | 1012.1 |
| 20260507001817 | 4 | 197 | 0.0 | 0.0 | 0.00 | 0.79 | 0.00 | 93 | 1012.0 |
| 20260507001720 | 4 | 197 | 0.0 | 0.0 | 0.00 | 0.79 | 0.00 | 93 | 1012.0 |
| 20260507001617 | 4 | 197 | 0.0 | 0.0 | 0.00 | 0.79 | 0.00 | 93 | 1012.1 |
| 20260507001539 | 4 | 197 | 0.0 | 0.0 | 0.00 | 0.79 | 0.00 | 93 | 1012.0 |
| 20260507001319 | 4 | 197 | 0.0 | 0.0 | 0.00 | 0.79 | 0.00 | 93 | 1012.1 |
| 20260507001036 | 4 | 197 | 0.0 | 0.0 | 0.00 | 0.79 | 0.00 | 93 | 1012.0 |
| 20260507000917 | 5 | 197 | 0.0 | 0.0 | 0.00 | 0.79 | 0.00 | 93 | 1012.0 |
| 20260507000817 | 5 | 197 | 0.0 | 0.0 | 0.00 | 0.79 | 0.00 | 93 | 1012.1 |
| 20260507000720 | 5 | 197 | 0.0 | 0.0 | 0.00 | 0.79 | 0.00 | 93 | 1012.0 |
| 20260507000617 | 5 | 197 | 0.0 | 0.0 | 0.00 | 0.79 | 0.00 | 93 | 1012.1 |
| 20260507000527 | 5 | 197 | 0.0 | 0.0 | 0.00 | 0.79 | 0.00 | 93 | 1012.1 |
| 20260507000321 | 5 | 197 | 0.0 | 0.0 | 0.00 | 0.79 | 0.00 | 93 | 1012.1 |
| 20260507000219 | 5 | 197 | 0.0 | 0.0 | 0.00 | 0.79 | 0.00 | 93 | 1012.2 |
| 20260507000124 | 5 | 197 | 0.0 | 0.0 | 0.00 | 0.79 | 0.00 | 93 | 1012.1 |
| 20260506235917 | 5 | 196 | 0.0 | 0.0 | 0.00 | 0.79 | 0.00 | 93 | 1012.1 |
| 20260506235819 | 5 | 197 | 0.0 | 0.0 | 0.00 | 0.79 | 0.00 | 93 | 1012.1 |
| 20260506235618 | 5 | 197 | 0.0 | 0.0 | 0.00 | 0.79 | 0.00 | 93 | 1012.1 |
| 20260506235525 | 5 | 197 | 0.0 | 0.0 | 0.00 | 0.79 | 0.00 | 93 | 1012.1 |
| 20260506235420 | 5 | 197 | 0.0 | 0.0 | 0.00 | 0.79 | 0.00 | 93 | 1012.0 |
| 20260506235219 | 5 | 197 | 0.0 | 0.0 | 0.00 | 0.79 | 0.00 | 93 | 1011.9 |
| 20260506235117 | 5 | 197 | 0.0 | 0.0 | 0.00 | 0.79 | 0.00 | 93 | 1011.9 |
| 20260506235038 | 5 | 197 | 0.0 | 0.0 | 0.00 | 0.79 | 0.00 | 93 | 1012.0 |
| 20260506234917 | 5 | 197 | 0.0 | 0.0 | 0.00 | 0.79 | 0.00 | 93 | 1011.9 |
| 20260506234819 | 5 | 197 | 0.0 | 0.0 | 0.00 | 0.79 | 0.00 | 93 | 1011.9 |
| 20260506234617 | 5 | 197 | 0.0 | 0.0 | 0.00 | 0.79 | 0.00 | 93 | 1011.9 |
| 20260506234525 | 5 | 197 | 0.0 | 0.0 | 0.00 | 0.79 | 0.00 | 93 | 1011.9 |
| 20260506234420 | 5 | 197 | 0.0 | 0.0 | 0.00 | 0.79 | 0.00 | 93 | 1012.0 |
| 20260506234117 | 5 | 197 | 0.0 | 0.0 | 0.00 | 0.79 | 0.00 | 93 | 1011.9 |
| 20260506233917 | 5 | 197 | 0.0 | 0.0 | 0.00 | 0.79 | 0.00 | 93 | 1012.0 |
| 20260506233819 | 5 | 197 | 0.0 | 0.0 | 0.00 | 0.79 | 0.00 | 93 | 1011.9 |
| 20260506233718 | 5 | 197 | 0.0 | 0.0 | 0.00 | 0.79 | 0.00 | 93 | 1012.0 |
| 20260506233617 | 5 | 197 | 0.0 | 0.0 | 0.00 | 0.79 | 0.00 | 93 | 1011.8 |
| 20260506233525 | 5 | 197 | 0.0 | 0.0 | 0.00 | 0.79 | 0.00 | 93 | 1011.9 |
| 20260506233420 | 5 | 197 | 0.0 | 0.0 | 0.00 | 0.79 | 0.00 | 93 | 1011.9 |
| 20260506233317 | 5 | 197 | 0.0 | 0.0 | 0.00 | 0.79 | 0.00 | 93 | 1011.9 |
| 20260506233219 | 5 | 197 | 0.0 | 0.0 | 0.00 | 0.79 | 0.00 | 93 | 1011.8 |
| 20260506233117 | 5 | 197 | 0.0 | 0.0 | 0.00 | 0.79 | 0.00 | 92 | 1011.9 |
| 20260506233035 | 5 | 197 | 0.0 | 0.0 | 0.00 | 0.79 | 0.00 | 92 | 1011.8 |
| 20260506232919 | 5 | 197 | 0.0 | 0.0 | 0.00 | 0.79 | 0.00 | 92 | 1011.8 |
| 20260506232819 | 5 | 197 | 0.0 | 0.0 | 0.00 | 0.79 | 0.00 | 92 | 1011.7 |
| 20260506232719 | 5 | 197 | 0.0 | 0.0 | 0.00 | 0.79 | 0.00 | 92 | 1011.8 |
| 20260506232618 | 5 | 197 | 0.0 | 0.0 | 0.00 | 0.79 | 0.00 | 92 | 1011.8 |
| 20260506232525 | 5 | 197 | 0.0 | 0.0 | 0.00 | 0.79 | 0.00 | 92 | 1011.8 |
| 20260506232420 | 5 | 197 | 0.0 | 0.0 | 0.00 | 0.79 | 0.00 | 92 | 1011.8 |
| 20260506232317 | 5 | 197 | 0.0 | 0.0 | 0.00 | 0.79 | 0.00 | 92 | 1011.8 |
| 20260506232035 | 5 | 197 | 0.0 | 0.0 | 0.00 | 0.79 | 0.00 | 92 | 1011.8 |
| 20260506231917 | 5 | 197 | 0.0 | 0.0 | 0.00 | 0.79 | 0.00 | 92 | 1011.8 |
| 20260506231819 | 5 | 197 | 0.0 | 0.0 | 0.00 | 0.79 | 0.00 | 92 | 1011.7 |
| 20260506231718 | 5 | 197 | 0.0 | 0.0 | 0.00 | 0.79 | 0.00 | 92 | 1011.7 |
| 20260506231617 | 5 | 197 | 0.0 | 0.0 | 0.00 | 0.79 | 0.00 | 92 | 1011.7 |
| 20260506231420 | 5 | 197 | 0.0 | 0.0 | 0.00 | 0.79 | 0.00 | 92 | 1011.6 |
| 20260506231319 | 5 | 197 | 0.0 | 0.0 | 0.00 | 0.79 | 0.00 | 92 | 1011.7 |
| 20260506231218 | 5 | 197 | 0.0 | 0.0 | 0.00 | 0.79 | 0.00 | 92 | 1011.5 |
| 20260506231117 | 5 | 197 | 0.0 | 0.0 | 0.00 | 0.79 | 0.00 | 92 | 1011.6 |
| 20260506231035 | 5 | 197 | 0.0 | 0.0 | 0.00 | 0.79 | 0.00 | 92 | 1011.7 |
| 20260506230919 | 5 | 197 | 0.0 | 0.0 | 0.00 | 0.79 | 0.00 | 92 | 1011.5 |
| 20260506230817 | 5 | 197 | 0.0 | 0.0 | 0.00 | 0.79 | 0.00 | 92 | 1011.5 |
| 20260506230719 | 5 | 197 | 0.0 | 0.0 | 0.00 | 0.79 | 0.00 | 92 | 1011.5 |
| 20260506230617 | 5 | 197 | 0.0 | 0.0 | 0.00 | 0.79 | 0.00 | 93 | 1011.5 |
| 20260506230317 | 5 | 197 | 0.0 | 0.0 | 0.00 | 0.79 | 0.00 | 92 | 1011.4 |
| 20260506230218 | 5 | 197 | 0.0 | 0.0 | 0.00 | 0.79 | 0.00 | 92 | 1011.4 |
| 20260506230126 | 5 | 197 | 0.0 | 0.0 | 0.00 | 0.79 | 0.00 | 92 | 1011.5 |
| 20260506225920 | 5 | 197 | 1.6 | 6.4 | 0.00 | 0.79 | 0.00 | 92 | 1011.5 |
| 20260506225823 | 5 | 197 | 1.6 | 6.4 | 0.00 | 0.79 | 0.00 | 92 | 1011.5 |
| 20260506225720 | 5 | 197 | 1.6 | 6.4 | 0.00 | 0.79 | 0.00 | 92 | 1011.4 |
| 20260506225528 | 5 | 197 | 1.6 | 6.4 | 0.00 | 0.79 | 0.00 | 92 | 1011.4 |
| 20260506225421 | 5 | 197 | 1.6 | 6.4 | 0.00 | 0.79 | 0.00 | 92 | 1011.4 |
| 20260506225320 | 5 | 197 | 1.6 | 6.4 | 0.00 | 0.79 | 0.00 | 92 | 1011.4 |
| 20260506225222 | 5 | 196 | 1.6 | 6.4 | 0.00 | 0.79 | 0.00 | 92 | 1011.3 |
| 20260506225122 | 5 | 196 | 1.6 | 6.4 | 0.00 | 0.79 | 0.00 | 92 | 1011.4 |
| 20260506224921 | 5 | 197 | 0.0 | 4.8 | 0.00 | 0.79 | 0.00 | 92 | 1011.4 |
| 20260506224823 | 5 | 197 | 0.0 | 3.2 | 0.00 | 0.79 | 0.00 | 92 | 1011.3 |
| 20260506224620 | 5 | 197 | 0.0 | 3.2 | 0.00 | 0.79 | 0.00 | 91 | 1011.4 |
| 20260506224528 | 5 | 197 | 0.0 | 3.2 | 0.00 | 0.79 | 0.00 | 91 | 1011.4 |
| 20260506224423 | 5 | 197 | 0.0 | 3.2 | 0.00 | 0.79 | 0.00 | 92 | 1011.3 |
| 20260506224220 | 5 | 197 | 1.6 | 3.2 | 0.00 | 0.79 | 0.00 | 92 | 1011.4 |
| 20260506224121 | 5 | 197 | 1.6 | 4.8 | 0.00 | 0.79 | 0.00 | 92 | 1011.5 |
| 20260506224037 | 5 | 197 | 1.6 | 4.8 | 0.00 | 0.79 | 0.00 | 92 | 1011.4 |
| 20260506223922 | 5 | 197 | 1.6 | 4.8 | 0.00 | 0.79 | 0.00 | 92 | 1011.3 |
| 20260506223720 | 5 | 197 | 1.6 | 4.8 | 0.00 | 0.79 | 0.00 | 92 | 1011.5 |
| 20260506223621 | 5 | 197 | 1.6 | 4.8 | 0.00 | 0.79 | 0.00 | 92 | 1011.3 |
| 20260506223530 | 5 | 197 | 1.6 | 4.8 | 0.00 | 0.79 | 0.00 | 92 | 1011.3 |
| 20260506223420 | 5 | 197 | 1.6 | 4.8 | 0.00 | 0.79 | 0.00 | 92 | 1011.4 |
| 20260506223037 | 5 | 198 | 0.0 | 1.6 | 0.00 | 0.79 | 0.00 | 91 | 1011.3 |
| 20260506222922 | 5 | 198 | 0.0 | 1.6 | 0.00 | 0.79 | 0.00 | 91 | 1011.3 |
| 20260506222821 | 5 | 198 | 1.6 | 3.2 | 0.00 | 0.79 | 0.00 | 91 | 1011.3 |
| 20260506222720 | 5 | 198 | 1.6 | 4.8 | 0.00 | 0.79 | 0.00 | 91 | 1011.2 |
| 20260506222620 | 5 | 198 | 1.6 | 4.8 | 0.00 | 0.79 | 0.00 | 91 | 1011.4 |
| 20260506222530 | 5 | 198 | 1.6 | 4.8 | 0.00 | 0.79 | 0.00 | 91 | 1011.4 |
| 20260506222421 | 5 | 198 | 1.6 | 4.8 | 0.00 | 0.79 | 0.00 | 91 | 1011.3 |
| 20260506222322 | 5 | 198 | 1.6 | 4.8 | 0.00 | 0.79 | 0.00 | 91 | 1011.3 |
| 20260506222220 | 5 | 198 | 1.6 | 4.8 | 0.00 | 0.79 | 0.00 | 91 | 1011.3 |
| 20260506222121 | 5 | 198 | 1.6 | 4.8 | 0.00 | 0.79 | 0.00 | 91 | 1011.3 |
| 20260506222040 | 5 | 198 | 1.6 | 4.8 | 0.00 | 0.79 | 0.00 | 91 | 1011.2 |
| 20260506221922 | 5 | 198 | 1.6 | 4.8 | 0.00 | 0.79 | 0.00 | 91 | 1011.3 |
| 20260506221821 | 6 | 198 | 1.6 | 4.8 | 0.00 | 0.79 | 0.00 | 91 | 1011.3 |
| 20260506221721 | 6 | 198 | 0.0 | 4.8 | 0.00 | 0.79 | 0.00 | 91 | 1011.3 |
| 20260506221531 | 6 | 198 | 0.0 | 4.8 | 0.00 | 0.79 | 0.00 | 91 | 1011.2 |
| 20260506221420 | 6 | 198 | 0.0 | 4.8 | 0.00 | 0.79 | 0.00 | 91 | 1011.4 |
| 20260506221220 | 6 | 198 | 0.0 | 4.8 | 0.00 | 0.79 | 0.00 | 91 | 1011.3 |
| 20260506221121 | 6 | 198 | 0.0 | 3.2 | 0.00 | 0.79 | 0.00 | 91 | 1011.5 |
| 20260506221037 | 6 | 198 | 0.0 | 1.6 | 0.00 | 0.79 | 0.00 | 91 | 1011.3 |
| 20260506220922 | 6 | 198 | 0.0 | 1.6 | 0.00 | 0.79 | 0.00 | 91 | 1011.4 |
| 20260506220822 | 6 | 198 | 0.0 | 1.6 | 0.00 | 0.79 | 0.00 | 91 | 1011.3 |
| 20260506220720 | 6 | 198 | 0.0 | 1.6 | 0.00 | 0.79 | 0.00 | 91 | 1011.3 |
| 20260506220532 | 6 | 198 | 0.0 | 3.2 | 0.00 | 0.79 | 0.00 | 91 | 1011.3 |
| 20260506220422 | 6 | 198 | 0.0 | 3.2 | 0.00 | 0.79 | 0.00 | 91 | 1011.3 |
| 20260506220222 | 6 | 198 | 0.0 | 3.2 | 0.00 | 0.79 | 0.00 | 91 | 1011.4 |
| 20260506220044 | 6 | 198 | 1.6 | 3.2 | 0.00 | 0.79 | 0.00 | 90 | 1011.3 |
| 20260506215921 | 6 | 198 | 1.6 | 3.2 | 0.00 | 0.79 | 0.79 | 90 | 1011.3 |
| 20260506215822 | 6 | 198 | 0.0 | 3.2 | 0.00 | 0.79 | 0.79 | 90 | 1011.4 |
| 20260506215720 | 6 | 198 | 0.0 | 3.2 | 0.00 | 0.79 | 0.79 | 90 | 1011.3 |
| 20260506215622 | 6 | 198 | 0.0 | 1.6 | 0.00 | 0.79 | 0.79 | 90 | 1011.3 |
| 20260506215529 | 6 | 198 | 0.0 | 1.6 | 0.00 | 0.79 | 0.79 | 91 | 1011.2 |
| 20260506215421 | 6 | 198 | 0.0 | 1.6 | 0.00 | 0.79 | 0.79 | 91 | 1011.1 |
| 20260506215320 | 6 | 198 | 0.0 | 3.2 | 0.00 | 0.79 | 0.79 | 91 | 1011.3 |
| 20260506215120 | 6 | 198 | 1.6 | 4.8 | 0.00 | 0.79 | 0.79 | 91 | 1011.3 |
| 20260506215042 | 6 | 198 | 0.0 | 4.8 | 0.00 | 0.79 | 0.79 | 91 | 1011.2 |
| 20260506214921 | 6 | 198 | 1.6 | 4.8 | 0.00 | 0.79 | 0.79 | 91 | 1011.3 |
| 20260506214720 | 6 | 198 | 1.6 | 6.4 | 0.00 | 0.79 | 0.79 | 91 | 1011.2 |
| 20260506214622 | 6 | 198 | 1.6 | 6.4 | 0.00 | 0.79 | 0.79 | 90 | 1011.2 |
| 20260506214529 | 6 | 198 | 3.2 | 6.4 | 0.00 | 0.79 | 0.79 | 90 | 1011.2 |
| 20260506214421 | 6 | 198 | 3.2 | 6.4 | 0.00 | 0.79 | 0.79 | 90 | 1011.3 |
| 20260506214320 | 6 | 198 | 3.2 | 6.4 | 0.00 | 0.79 | 0.79 | 90 | 1011.2 |
| 20260506214223 | 6 | 198 | 3.2 | 6.4 | 0.00 | 0.79 | 0.79 | 90 | 1011.2 |
| 20260506214120 | 6 | 198 | 3.2 | 6.4 | 0.00 | 0.79 | 0.79 | 90 | 1011.2 |
| 20260506214039 | 6 | 198 | 3.2 | 6.4 | 0.00 | 0.79 | 0.79 | 90 | 1011.3 |
| 20260506213920 | 6 | 198 | 3.2 | 6.4 | 0.00 | 0.79 | 0.79 | 90 | 1011.2 |
| 20260506213822 | 6 | 199 | 1.6 | 6.4 | 0.00 | 0.79 | 0.79 | 90 | 1011.3 |
| 20260506213622 | 6 | 199 | 1.6 | 4.8 | 0.00 | 0.79 | 0.79 | 90 | 1011.2 |
| 20260506213529 | 6 | 199 | 1.6 | 4.8 | 0.00 | 0.79 | 0.79 | 90 | 1011.2 |
| 20260506213421 | 6 | 198 | 1.6 | 6.4 | 0.00 | 0.79 | 0.79 | 89 | 1011.1 |
| 20260506213321 | 6 | 198 | 1.6 | 6.4 | 0.00 | 0.79 | 0.79 | 89 | 1011.2 |
| 20260506213120 | 6 | 198 | 1.6 | 6.4 | 0.00 | 0.79 | 0.79 | 89 | 1011.2 |
| 20260506213039 | 6 | 198 | 1.6 | 6.4 | 0.00 | 0.79 | 0.79 | 89 | 1011.3 |
| 20260506212920 | 6 | 198 | 1.6 | 6.4 | 0.00 | 0.79 | 0.79 | 89 | 1011.2 |
| 20260506212822 | 6 | 198 | 1.6 | 6.4 | 0.00 | 0.79 | 0.79 | 89 | 1011.2 |
| 20260506212622 | 6 | 198 | 1.6 | 6.4 | 0.00 | 0.79 | 0.79 | 89 | 1011.2 |
| 20260506212530 | 6 | 198 | 1.6 | 4.8 | 0.00 | 0.79 | 0.79 | 89 | 1011.2 |
| 20260506212420 | 6 | 198 | 1.6 | 4.8 | 0.00 | 0.79 | 0.79 | 89 | 1011.2 |
| 20260506212320 | 7 | 198 | 1.6 | 4.8 | 0.00 | 0.79 | 0.79 | 89 | 1011.3 |
| 20260506212222 | 7 | 199 | 1.6 | 4.8 | 0.00 | 0.79 | 0.79 | 89 | 1011.2 |
| 20260506212121 | 7 | 199 | 1.6 | 4.8 | 0.00 | 0.79 | 0.79 | 89 | 1011.2 |
| 20260506212039 | 7 | 199 | 1.6 | 4.8 | 0.00 | 0.79 | 0.79 | 89 | 1011.1 |
| 20260506211822 | 7 | 199 | 1.6 | 4.8 | 0.00 | 0.79 | 0.79 | 88 | 1011.1 |
| 20260506211622 | 7 | 203 | 0.0 | 1.6 | 0.00 | 0.79 | 0.79 | 88 | 1011.1 |
| 20260506211530 | 7 | 203 | 0.0 | 1.6 | 0.00 | 0.79 | 0.79 | 88 | 1011.0 |
| 20260506211420 | 7 | 203 | 0.0 | 1.6 | 0.00 | 0.79 | 0.79 | 88 | 1011.1 |
| 20260506211321 | 7 | 203 | 0.0 | 3.2 | 0.00 | 0.79 | 0.79 | 88 | 1011.1 |
| 20260506211120 | 7 | 203 | 0.0 | 3.2 | 0.00 | 0.79 | 0.79 | 88 | 1011.0 |
| 20260506211042 | 7 | 203 | 0.0 | 3.2 | 0.00 | 0.79 | 0.79 | 88 | 1011.1 |
| 20260506210920 | 7 | 203 | 0.0 | 3.2 | 0.00 | 0.79 | 0.79 | 88 | 1011.0 |
| 20260506210822 | 7 | 203 | 0.0 | 3.2 | 0.00 | 0.79 | 0.79 | 88 | 1011.1 |
| 20260506210721 | 7 | 203 | 0.0 | 3.2 | 0.00 | 0.79 | 0.79 | 88 | 1011.1 |
| 20260506210622 | 7 | 203 | 0.0 | 3.2 | 0.00 | 0.79 | 0.79 | 88 | 1011.2 |
| 20260506210530 | 7 | 203 | 0.0 | 3.2 | 0.00 | 0.79 | 0.79 | 87 | 1011.1 |
| 20260506210421 | 7 | 203 | 0.0 | 3.2 | 0.00 | 0.79 | 0.79 | 87 | 1011.2 |
| 20260506210320 | 7 | 203 | 0.0 | 3.2 | 0.00 | 0.79 | 0.79 | 87 | 1011.1 |
| 20260506210223 | 7 | 203 | 0.0 | 3.2 | 0.00 | 0.79 | 0.79 | 87 | 1011.1 |
| 20260506210129 | 7 | 203 | 0.0 | 3.2 | 0.00 | 0.79 | 0.79 | 87 | 1011.1 |
| 20260506205923 | 7 | 203 | 0.0 | 3.2 | 0.00 | 0.79 | 0.79 | 87 | 1011.1 |
| 20260506205819 | 7 | 203 | 0.0 | 3.2 | 0.00 | 0.79 | 0.79 | 87 | 1011.1 |
| 20260506205722 | 7 | 203 | 0.0 | 3.2 | 0.00 | 0.79 | 0.79 | 87 | 1011.2 |
| 20260506205619 | 7 | 203 | 0.0 | 1.6 | 0.00 | 0.79 | 0.79 | 87 | 1011.1 |
| 20260506205529 | 7 | 203 | 0.0 | 1.6 | 0.00 | 0.79 | 0.79 | 87 | 1011.1 |
| 20260506205419 | 8 | 203 | 0.0 | 1.6 | 0.00 | 0.79 | 0.79 | 87 | 1011.0 |
| 20260506205321 | 8 | 203 | 0.0 | 1.6 | 0.00 | 0.79 | 0.79 | 87 | 1011.2 |
| 20260506205221 | 8 | 203 | 0.0 | 1.6 | 0.00 | 0.79 | 0.79 | 87 | 1011.1 |
| 20260506205119 | 8 | 203 | 0.0 | 1.6 | 0.00 | 0.79 | 0.79 | 87 | 1011.0 |
| 20260506205039 | 8 | 203 | 0.0 | 1.6 | 0.00 | 0.79 | 0.79 | 86 | 1011.2 |
| 20260506204922 | 8 | 203 | 0.0 | 1.6 | 0.00 | 0.79 | 0.79 | 86 | 1011.1 |
| 20260506204529 | 8 | 203 | 0.0 | 0.0 | 0.00 | 0.79 | 0.79 | 86 | 1011.1 |
| 20260506204321 | 8 | 203 | 1.6 | 6.4 | 0.00 | 0.79 | 0.79 | 86 | 1011.2 |
| 20260506204221 | 8 | 203 | 1.6 | 6.4 | 0.00 | 0.79 | 0.79 | 86 | 1011.0 |
| 20260506204119 | 8 | 203 | 1.6 | 6.4 | 0.00 | 0.79 | 0.79 | 86 | 1011.1 |
| 20260506204039 | 8 | 203 | 3.2 | 6.4 | 0.00 | 0.79 | 0.79 | 86 | 1011.1 |
| 20260506203821 | 8 | 203 | 3.2 | 6.4 | 0.00 | 0.79 | 0.79 | 86 | 1011.1 |
| 20260506203719 | 8 | 203 | 3.2 | 6.4 | 0.00 | 0.79 | 0.79 | 86 | 1011.1 |
| 20260506203620 | 8 | 203 | 4.8 | 6.4 | 0.00 | 0.79 | 0.79 | 85 | 1011.0 |
| 20260506203422 | 8 | 205 | 3.2 | 6.4 | 0.00 | 0.79 | 0.79 | 85 | 1011.0 |
| 20260506203320 | 8 | 217 | 3.2 | 6.4 | 0.00 | 0.79 | 0.79 | 85 | 1011.0 |
| 20260506203221 | 8 | 217 | 3.2 | 6.4 | 0.00 | 0.79 | 0.79 | 85 | 1011.1 |
| 20260506203120 | 8 | 217 | 3.2 | 6.4 | 0.00 | 0.79 | 0.79 | 85 | 1011.0 |
| 20260506203040 | 8 | 217 | 3.2 | 6.4 | 0.00 | 0.79 | 0.79 | 85 | 1010.9 |
| 20260506202924 | 8 | 205 | 3.2 | 6.4 | 0.00 | 0.79 | 0.79 | 85 | 1011.0 |
| 20260506202820 | 8 | 198 | 1.6 | 6.4 | 0.00 | 0.79 | 0.79 | 85 | 1011.0 |
| 20260506202720 | 8 | 199 | 1.6 | 4.8 | 0.00 | 0.79 | 0.79 | 85 | 1011.0 |
| 20260506202530 | 8 | 199 | 1.6 | 4.8 | 0.00 | 0.79 | 0.79 | 85 | 1011.0 |
| 20260506202420 | 9 | 199 | 1.6 | 4.8 | 0.00 | 0.79 | 0.79 | 84 | 1010.9 |
| 20260506202323 | 9 | 199 | 1.6 | 4.8 | 0.00 | 0.79 | 0.79 | 84 | 1011.0 |
| 20260506202221 | 9 | 199 | 1.6 | 4.8 | 0.00 | 0.79 | 0.79 | 84 | 1011.0 |
| 20260506202122 | 9 | 198 | 1.6 | 4.8 | 0.00 | 0.79 | 0.79 | 84 | 1011.0 |
| 20260506202044 | 9 | 190 | 1.6 | 4.8 | 0.00 | 0.79 | 0.79 | 83 | 1010.9 |
| 20260506201924 | 9 | 190 | 1.6 | 4.8 | 0.00 | 0.79 | 0.79 | 83 | 1011.0 |
| 20260506201823 | 9 | 190 | 1.6 | 4.8 | 0.00 | 0.79 | 0.79 | 83 | 1010.9 |
| 20260506201720 | 9 | 190 | 1.6 | 8.0 | 0.00 | 0.79 | 0.79 | 82 | 1011.0 |
| 20260506201534 | 10 | 190 | 1.6 | 8.0 | 0.00 | 0.79 | 0.79 | 82 | 1011.0 |
| 20260506201422 | 10 | 190 | 1.6 | 8.0 | 0.00 | 0.79 | 0.79 | 82 | 1011.0 |
| 20260506201126 | 10 | 190 | 4.8 | 11.3 | 0.00 | 0.79 | 0.79 | 81 | 1010.9 |
| 20260506201041 | 10 | 190 | 4.8 | 11.3 | 0.00 | 0.79 | 0.79 | 81 | 1011.0 |
| 20260506200921 | 10 | 190 | 4.8 | 12.9 | 0.00 | 0.79 | 0.79 | 81 | 1011.0 |
| 20260506200822 | 10 | 190 | 6.4 | 12.9 | 0.00 | 0.79 | 0.79 | 81 | 1010.9 |
| 20260506200620 | 10 | 190 | 8.0 | 14.5 | 0.00 | 0.79 | 0.79 | 80 | 1010.8 |
| 20260506200530 | 10 | 190 | 6.4 | 14.5 | 0.00 | 0.79 | 0.79 | 80 | 1010.8 |
| 20260506200421 | 10 | 159 | 6.4 | 14.5 | 0.00 | 0.79 | 0.79 | 80 | 1010.9 |
| 20260506200321 | 10 | 188 | 6.4 | 14.5 | 0.00 | 0.79 | 0.79 | 79 | 1010.9 |
| 20260506200220 | 11 | 188 | 4.8 | 14.5 | 0.00 | 0.79 | 0.79 | 79 | 1010.8 |
| 20260506200129 | 11 | 194 | 4.8 | 14.5 | 0.00 | 0.79 | 0.79 | 79 | 1010.7 |
| 20260506195921 | 11 | 182 | 1.6 | 14.5 | 0.00 | 0.79 | 0.79 | 78 | 1010.7 |
| 20260506195827 | 11 | 184 | 1.6 | 14.5 | 0.00 | 0.79 | 0.79 | 79 | 1010.7 |
| 20260506195622 | 11 | 192 | 1.6 | 6.4 | 0.00 | 0.79 | 0.79 | 80 | 1010.6 |
| 20260506195425 | 12 | 87 | 1.6 | 6.4 | 0.00 | 0.79 | 0.79 | 79 | 1010.6 |
| 20260506195321 | 12 | 87 | 1.6 | 6.4 | 0.00 | 0.79 | 0.79 | 79 | 1010.6 |
| 20260506195120 | 12 | 87 | 1.6 | 6.4 | 0.00 | 0.79 | 0.79 | 78 | 1010.6 |
| 20260506195039 | 12 | 87 | 1.6 | 6.4 | 0.00 | 0.79 | 0.79 | 78 | 1010.6 |
| 20260506194822 | 12 | 134 | 3.2 | 11.3 | 0.00 | 0.79 | 0.79 | 78 | 1010.6 |
| 20260506194624 | 12 | 126 | 4.8 | 11.3 | 0.00 | 0.79 | 0.79 | 78 | 1010.5 |
| 20260506194531 | 12 | 136 | 4.8 | 11.3 | 0.00 | 0.79 | 0.79 | 78 | 1010.6 |
| 20260506194430 | 12 | 134 | 4.8 | 11.3 | 0.00 | 0.79 | 0.79 | 78 | 1010.5 |
| 20260506194322 | 12 | 186 | 3.2 | 11.3 | 0.00 | 0.79 | 0.79 | 78 | 1010.5 |
| 20260506194221 | 12 | 147 | 3.2 | 11.3 | 0.00 | 0.79 | 0.79 | 78 | 1010.5 |
| 20260506194120 | 12 | 148 | 3.2 | 11.3 | 0.00 | 0.79 | 0.79 | 78 | 1010.6 |
| 20260506194039 | 12 | 147 | 3.2 | 11.3 | 0.00 | 0.79 | 0.79 | 77 | 1010.5 |
| 20260506193921 | 12 | 157 | 3.2 | 11.3 | 0.00 | 0.79 | 0.79 | 76 | 1010.6 |
| 20260506193822 | 12 | 190 | 3.2 | 9.7 | 0.00 | 0.79 | 0.79 | 75 | 1010.6 |
| 20260506193722 | 13 | 187 | 3.2 | 9.7 | 0.00 | 0.79 | 0.79 | 76 | 1010.5 |
| 20260506193620 | 13 | 142 | 1.6 | 6.4 | 0.00 | 0.79 | 0.79 | 76 | 1010.4 |
| 20260506193426 | 13 | 159 | 1.6 | 8.0 | 0.00 | 0.79 | 0.79 | 75 | 1010.6 |
| 20260506193320 | 13 | 159 | 1.6 | 8.0 | 0.00 | 0.79 | 0.79 | 75 | 1010.5 |
| 20260506193221 | 13 | 159 | 1.6 | 8.0 | 0.00 | 0.79 | 0.79 | 76 | 1010.4 |
| 20260506193132 | 13 | 161 | 1.6 | 8.0 | 0.00 | 0.79 | 0.79 | 76 | 1010.5 |
| 20260506192919 | 13 | 96 | 1.6 | 8.0 | 0.00 | 0.79 | 0.79 | 74 | 1010.4 |
| 20260506192721 | 13 | 67 | 1.6 | 8.0 | 0.00 | 0.79 | 0.79 | 74 | 1010.4 |
| 20260506192621 | 13 | 59 | 1.6 | 8.0 | 0.00 | 0.79 | 0.79 | 73 | 1010.4 |
| 20260506192527 | 13 | 59 | 1.6 | 8.0 | 0.00 | 0.79 | 0.79 | 73 | 1010.4 |
| 20260506192428 | 13 | 59 | 3.2 | 9.7 | 0.00 | 0.79 | 0.79 | 73 | 1010.4 |
| 20260506192321 | 13 | 60 | 3.2 | 9.7 | 0.00 | 0.79 | 0.79 | 73 | 1010.4 |
| 20260506192223 | 13 | 60 | 3.2 | 9.7 | 0.00 | 0.79 | 0.79 | 73 | 1010.4 |
| 20260506192126 | 13 | 61 | 4.8 | 9.7 | 0.00 | 0.79 | 0.79 | 73 | 1010.4 |
| 20260506192038 | 13 | 75 | 4.8 | 12.9 | 0.00 | 0.79 | 0.79 | 72 | 1010.4 |
| 20260506191920 | 13 | 75 | 6.4 | 12.9 | 0.00 | 0.79 | 0.79 | 72 | 1010.2 |
| 20260506191820 | 13 | 75 | 6.4 | 16.1 | 0.00 | 0.79 | 0.79 | 72 | 1010.4 |
| 20260506191723 | 13 | 75 | 6.4 | 16.1 | 0.00 | 0.79 | 0.79 | 72 | 1010.3 |
| 20260506191623 | 13 | 69 | 6.4 | 16.1 | 0.00 | 0.79 | 0.79 | 72 | 1010.2 |
| 20260506191421 | 13 | 63 | 6.4 | 16.1 | 0.00 | 0.79 | 0.79 | 73 | 1010.2 |
| 20260506191324 | 13 | 57 | 6.4 | 16.1 | 0.00 | 0.79 | 0.79 | 73 | 1010.2 |
| 20260506191222 | 13 | 68 | 6.4 | 16.1 | 0.00 | 0.79 | 0.79 | 73 | 1010.1 |
| 20260506191122 | 13 | 86 | 6.4 | 16.1 | 0.00 | 0.79 | 0.79 | 73 | 1010.2 |
| 20260506190926 | 13 | 141 | 4.8 | 16.1 | 0.00 | 0.79 | 0.79 | 72 | 1010.3 |
| 20260506190721 | 13 | 134 | 4.8 | 11.3 | 0.00 | 0.79 | 0.79 | 69 | 1010.2 |
| 20260506190627 | 13 | 150 | 4.8 | 11.3 | 0.00 | 0.79 | 0.79 | 70 | 1010.2 |
| 20260506190536 | 13 | 148 | 4.8 | 11.3 | 0.00 | 0.79 | 0.79 | 70 | 1010.0 |
| 20260506190419 | 13 | 150 | 4.8 | 11.3 | 0.00 | 0.79 | 0.79 | 72 | 1010.1 |
| 20260506190319 | 13 | 172 | 4.8 | 9.7 | 0.00 | 0.79 | 0.79 | 72 | 1010.0 |
| 20260506190222 | 13 | 194 | 3.2 | 9.7 | 0.00 | 0.79 | 0.79 | 69 | 1010.0 |
| 20260506190040 | 13 | 132 | 4.8 | 9.7 | 0.00 | 0.79 | 0.79 | 70 | 1009.9 |
| 20260506185925 | 13 | 107 | 4.8 | 11.3 | 0.00 | 0.79 | 0.79 | 70 | 1010.0 |
| 20260506185821 | 13 | 92 | 4.8 | 12.9 | 0.00 | 0.79 | 0.79 | 68 | 1010.0 |
| 20260506185719 | 13 | 88 | 4.8 | 12.9 | 0.00 | 0.79 | 0.79 | 68 | 1010.0 |
| 20260506185620 | 13 | 50 | 4.8 | 12.9 | 0.00 | 0.79 | 0.79 | 69 | 1010.0 |
| 20260506185534 | 13 | 62 | 4.8 | 12.9 | 0.00 | 0.79 | 0.79 | 69 | 1009.9 |
| 20260506185420 | 13 | 86 | 3.2 | 12.9 | 0.00 | 0.79 | 0.79 | 70 | 1009.8 |
| 20260506185325 | 13 | 185 | 3.2 | 12.9 | 0.00 | 0.79 | 0.79 | 69 | 1009.8 |
| 20260506185220 | 13 | 185 | 3.2 | 12.9 | 0.00 | 0.79 | 0.79 | 70 | 1009.9 |
| 20260506185036 | 13 | 192 | 1.6 | 12.9 | 0.00 | 0.79 | 0.79 | 71 | 1009.9 |
| 20260506184922 | 13 | 19 | 1.6 | 4.8 | 0.00 | 0.79 | 0.79 | 68 | 1009.7 |
| 20260506184821 | 13 | 132 | 1.6 | 4.8 | 0.00 | 0.79 | 0.79 | 66 | 1009.7 |
| 20260506184720 | 14 | 164 | 0.0 | 4.8 | 0.00 | 0.79 | 0.79 | 67 | 1009.8 |
| 20260506184622 | 14 | 164 | 1.6 | 6.4 | 0.00 | 0.79 | 0.79 | 66 | 1009.6 |
| 20260506184533 | 14 | 165 | 0.0 | 6.4 | 0.00 | 0.79 | 0.79 | 67 | 1009.7 |
| 20260506184419 | 14 | 184 | 0.0 | 4.8 | 0.00 | 0.79 | 0.79 | 67 | 1009.6 |
| 20260506184322 | 14 | 184 | 1.6 | 4.8 | 0.00 | 0.79 | 0.79 | 65 | 1009.6 |
| 20260506184121 | 15 | 184 | 1.6 | 6.4 | 0.00 | 0.79 | 0.79 | 65 | 1009.4 |
| 20260506184036 | 15 | 184 | 3.2 | 11.3 | 0.00 | 0.79 | 0.79 | 66 | 1009.5 |
| 20260506183923 | 15 | 184 | 4.8 | 14.5 | 0.00 | 0.79 | 0.79 | 62 | 1009.5 |
| 20260506183820 | 15 | 184 | 4.8 | 17.7 | 0.00 | 0.79 | 0.79 | 63 | 1009.4 |
| 20260506183719 | 15 | 184 | 4.8 | 17.7 | 0.00 | 0.79 | 0.79 | 63 | 1009.3 |
| 20260506183535 | 15 | 78 | 4.8 | 17.7 | 0.00 | 0.79 | 0.79 | 60 | 1009.4 |
| 20260506183420 | 15 | 84 | 4.8 | 17.7 | 0.00 | 0.79 | 0.79 | 60 | 1009.4 |
| 20260506183321 | 15 | 85 | 4.8 | 17.7 | 0.00 | 0.79 | 0.79 | 60 | 1009.3 |
| 20260506183124 | 15 | 109 | 4.8 | 17.7 | 0.00 | 0.79 | 0.79 | 60 | 1009.2 |
| 20260506183036 | 15 | 103 | 4.8 | 17.7 | 0.00 | 0.79 | 0.79 | 60 | 1009.3 |
| 20260506182919 | 14 | 112 | 4.8 | 17.7 | 0.00 | 0.79 | 0.79 | 62 | 1009.3 |
| 20260506182822 | 14 | 146 | 3.2 | 12.9 | 0.00 | 0.79 | 0.79 | 62 | 1009.3 |
| 20260506182722 | 15 | 57 | 3.2 | 12.9 | 0.00 | 0.79 | 0.79 | 62 | 1009.1 |
| 20260506182620 | 15 | 57 | 4.8 | 12.9 | 0.00 | 0.79 | 0.79 | 61 | 1009.1 |
| 20260506182528 | 15 | 57 | 4.8 | 12.9 | 0.00 | 0.79 | 0.79 | 61 | 1009.1 |
| 20260506182421 | 15 | 41 | 4.8 | 12.9 | 0.00 | 0.79 | 0.79 | 61 | 1009.1 |
| 20260506182322 | 15 | 5 | 4.8 | 12.9 | 0.00 | 0.79 | 0.79 | 61 | 1009.0 |
| 20260506182221 | 15 | 305 | 4.8 | 11.3 | 0.00 | 0.79 | 0.79 | 60 | 1009.0 |
| 20260506182036 | 15 | 18 | 6.4 | 14.5 | 0.00 | 0.79 | 0.79 | 60 | 1008.8 |
| 20260506181925 | 15 | 202 | 6.4 | 19.3 | 0.00 | 0.79 | 0.79 | 60 | 1008.8 |
| 20260506181820 | 15 | 147 | 8.0 | 19.3 | 0.00 | 0.79 | 0.79 | 61 | 1008.5 |
| 20260506181620 | 15 | 355 | 9.7 | 37.0 | 0.00 | 0.79 | 0.79 | 61 | 1008.4 |
| 20260506181529 | 15 | 214 | 11.3 | 35.4 | 0.00 | 0.79 | 0.79 | 60 | 1008.2 |
| 20260506181420 | 15 | 147 | 12.9 | 35.4 | 0.00 | 0.79 | 0.79 | 60 | 1008.2 |
| 20260506181321 | 15 | 217 | 12.9 | 35.4 | 0.00 | 0.79 | 0.79 | 60 | 1008.2 |
| 20260506181221 | 15 | 184 | 14.5 | 35.4 | 0.00 | 0.79 | 0.79 | 59 | 1008.2 |
| 20260506181123 | 15 | 177 | 14.5 | 35.4 | 0.00 | 0.79 | 0.79 | 59 | 1008.1 |
| 20260506180923 | 15 | 192 | 14.5 | 35.4 | 0.00 | 0.79 | 0.79 | 59 | 1007.9 |
| 20260506180820 | 15 | 188 | 12.9 | 35.4 | 0.00 | 0.79 | 0.79 | 59 | 1008.1 |
| 20260506180723 | 15 | 191 | 12.9 | 25.7 | 0.00 | 0.79 | 0.79 | 59 | 1007.9 |
| 20260506180620 | 15 | 198 | 12.9 | 25.7 | 0.00 | 0.79 | 0.79 | 59 | 1007.9 |
| 20260506180419 | 15 | 178 | 12.9 | 25.7 | 0.00 | 0.79 | 0.79 | 58 | 1007.9 |
| 20260506180123 | 15 | 219 | 14.5 | 24.1 | 0.00 | 0.79 | 0.79 | 57 | 1007.8 |
| 20260506180044 | 15 | 184 | 14.5 | 29.0 | 0.00 | 0.79 | 0.79 | 58 | 1007.9 |
| 20260506175922 | 15 | 172 | 14.5 | 29.0 | 0.00 | 0.79 | 0.79 | 58 | 1007.8 |
| 20260506175820 | 15 | 195 | 16.1 | 29.0 | 0.00 | 0.79 | 0.79 | 57 | 1007.9 |
| 20260506175529 | 15 | 187 | 17.7 | 32.2 | 0.00 | 0.79 | 0.79 | 57 | 1007.8 |
| 20260506175419 | 15 | 211 | 17.7 | 32.2 | 0.00 | 0.79 | 0.79 | 57 | 1007.8 |
| 20260506175322 | 15 | 210 | 17.7 | 32.2 | 0.00 | 0.79 | 0.79 | 57 | 1007.8 |
| 20260506175120 | 15 | 224 | 17.7 | 32.2 | 0.00 | 0.79 | 0.79 | 56 | 1007.7 |
| 20260506175036 | 15 | 171 | 17.7 | 32.2 | 0.00 | 0.79 | 0.79 | 56 | 1007.9 |
| 20260506174819 | 15 | 202 | 17.7 | 30.6 | 0.00 | 0.79 | 0.79 | 56 | 1007.7 |
| 20260506174721 | 15 | 182 | 16.1 | 30.6 | 0.00 | 0.79 | 0.79 | 56 | 1007.8 |
| 20260506174619 | 15 | 187 | 17.7 | 30.6 | 0.00 | 0.79 | 0.79 | 56 | 1007.6 |
| 20260506174529 | 16 | 208 | 16.1 | 30.6 | 0.00 | 0.79 | 0.79 | 55 | 1007.5 |
| 20260506174420 | 16 | 196 | 16.1 | 29.0 | 0.00 | 0.79 | 0.79 | 55 | 1007.5 |
| 20260506174321 | 16 | 181 | 16.1 | 29.0 | 0.00 | 0.79 | 0.79 | 56 | 1007.5 |
| 20260506174221 | 16 | 228 | 16.1 | 27.4 | 0.00 | 0.79 | 0.79 | 55 | 1007.3 |
| 20260506174119 | 16 | 196 | 16.1 | 27.4 | 0.00 | 0.79 | 0.79 | 56 | 1007.4 |
| 20260506174036 | 16 | 170 | 16.1 | 27.4 | 0.00 | 0.79 | 0.79 | 56 | 1007.3 |
| 20260506173921 | 16 | 190 | 16.1 | 27.4 | 0.00 | 0.79 | 0.79 | 55 | 1007.4 |
| 20260506173819 | 16 | 195 | 16.1 | 27.4 | 0.00 | 0.79 | 0.79 | 56 | 1007.4 |
| 20260506173619 | 16 | 188 | 17.7 | 32.2 | 0.00 | 0.79 | 0.79 | 56 | 1007.3 |
| 20260506173420 | 16 | 213 | 16.1 | 32.2 | 0.00 | 0.79 | 0.79 | 56 | 1007.3 |
| 20260506173322 | 16 | 182 | 16.1 | 32.2 | 0.00 | 0.79 | 0.79 | 56 | 1007.4 |
| 20260506173222 | 16 | 189 | 16.1 | 35.4 | 0.00 | 0.79 | 0.79 | 56 | 1007.5 |
| 20260506173120 | 16 | 207 | 17.7 | 35.4 | 0.00 | 0.79 | 0.79 | 56 | 1007.4 |
| 20260506173039 | 16 | 196 | 17.7 | 35.4 | 0.00 | 0.79 | 0.79 | 56 | 1007.3 |
| 20260506172922 | 16 | 187 | 17.7 | 35.4 | 0.00 | 0.79 | 0.79 | 56 | 1007.2 |
| 20260506172819 | 16 | 220 | 17.7 | 35.4 | 0.00 | 0.79 | 0.79 | 56 | 1007.2 |
| 20260506172719 | 16 | 197 | 17.7 | 35.4 | 0.00 | 0.79 | 0.79 | 57 | 1007.2 |
| 20260506172621 | 16 | 203 | 17.7 | 35.4 | 0.00 | 0.79 | 0.79 | 57 | 1007.1 |
| 20260506172419 | 16 | 202 | 17.7 | 35.4 | 0.00 | 0.79 | 0.79 | 56 | 1007.1 |
| 20260506172319 | 16 | 159 | 17.7 | 35.4 | 0.00 | 0.79 | 0.79 | 55 | 1007.0 |
| 20260506172222 | 16 | 202 | 17.7 | 35.4 | 0.00 | 0.79 | 0.79 | 54 | 1007.0 |
| 20260506172119 | 16 | 190 | 17.7 | 35.4 | 0.00 | 0.79 | 0.79 | 55 | 1007.0 |
| 20260506172036 | 16 | 169 | 17.7 | 35.4 | 0.00 | 0.79 | 0.79 | 55 | 1006.9 |
| 20260506171920 | 16 | 185 | 19.3 | 35.4 | 0.00 | 0.79 | 0.79 | 54 | 1007.0 |
| 20260506171821 | 16 | 161 | 19.3 | 33.8 | 0.00 | 0.79 | 0.79 | 55 | 1006.9 |
| 20260506171719 | 16 | 184 | 20.9 | 35.4 | 0.00 | 0.79 | 0.79 | 54 | 1007.0 |
| 20260506171528 | 16 | 166 | 22.5 | 35.4 | 0.00 | 0.79 | 0.79 | 54 | 1007.0 |
| 20260506171320 | 16 | 174 | 24.1 | 45.1 | 0.00 | 0.79 | 0.79 | 53 | 1006.9 |
| 20260506171219 | 16 | 176 | 24.1 | 45.1 | 0.00 | 0.79 | 0.79 | 53 | 1006.9 |
| 20260506171119 | 16 | 188 | 24.1 | 45.1 | 0.00 | 0.79 | 0.79 | 53 | 1006.9 |
| 20260506171041 | 16 | 187 | 24.1 | 45.1 | 0.00 | 0.79 | 0.79 | 53 | 1006.8 |
| 20260506170919 | 16 | 194 | 22.5 | 45.1 | 0.00 | 0.79 | 0.79 | 52 | 1006.8 |
| 20260506170821 | 16 | 202 | 20.9 | 45.1 | 0.00 | 0.79 | 0.79 | 52 | 1006.8 |
| 20260506170621 | 16 | 207 | 20.9 | 45.1 | 0.00 | 0.79 | 0.79 | 52 | 1006.8 |
| 20260506170527 | 16 | 186 | 19.3 | 45.1 | 0.00 | 0.79 | 0.79 | 52 | 1006.9 |
| 20260506170421 | 16 | 192 | 19.3 | 35.4 | 0.00 | 0.79 | 0.79 | 52 | 1006.8 |
| 20260506170320 | 16 | 213 | 19.3 | 35.4 | 0.00 | 0.79 | 0.79 | 52 | 1006.9 |
| 20260506170219 | 17 | 202 | 17.7 | 35.4 | 0.00 | 0.79 | 0.79 | 52 | 1006.7 |
| 20260506170122 | 17 | 234 | 16.1 | 35.4 | 0.00 | 0.79 | 0.79 | 51 | 1006.7 |
| 20260506170043 | 17 | 204 | 16.1 | 35.4 | 0.00 | 0.79 | 0.79 | 51 | 1006.6 |
| 20260506165920 | 17 | 193 | 16.1 | 35.4 | 0.00 | 0.79 | 0.79 | 53 | 1006.7 |
| 20260506165819 | 17 | 206 | 16.1 | 33.8 | 0.00 | 0.79 | 0.79 | 52 | 1006.7 |
| 20260506165722 | 17 | 153 | 16.1 | 33.8 | 0.00 | 0.79 | 0.79 | 52 | 1006.8 |
| 20260506165529 | 17 | 170 | 14.5 | 33.8 | 0.00 | 0.79 | 0.79 | 51 | 1006.8 |
| 20260506165419 | 17 | 203 | 14.5 | 30.6 | 0.00 | 0.79 | 0.79 | 51 | 1006.7 |
| 20260506165320 | 17 | 213 | 14.5 | 25.7 | 0.00 | 0.79 | 0.79 | 53 | 1006.7 |
| 20260506165220 | 17 | 197 | 16.1 | 40.2 | 0.00 | 0.79 | 0.79 | 53 | 1006.8 |
| 20260506165038 | 17 | 194 | 16.1 | 40.2 | 0.00 | 0.79 | 0.79 | 53 | 1006.7 |
| 20260506164919 | 17 | 188 | 16.1 | 40.2 | 0.00 | 0.79 | 0.79 | 52 | 1006.8 |
| 20260506164819 | 17 | 188 | 16.1 | 40.2 | 0.00 | 0.79 | 0.79 | 52 | 1006.7 |
| 20260506164529 | 17 | 203 | 17.7 | 40.2 | 0.00 | 0.79 | 0.79 | 52 | 1006.6 |
| 20260506164419 | 17 | 169 | 17.7 | 40.2 | 0.00 | 0.79 | 0.79 | 51 | 1006.8 |
| 20260506164320 | 17 | 207 | 17.7 | 33.8 | 0.00 | 0.79 | 0.79 | 51 | 1006.7 |
| 20260506164219 | 17 | 169 | 17.7 | 33.8 | 0.00 | 0.79 | 0.79 | 52 | 1006.8 |
| 20260506164121 | 17 | 196 | 17.7 | 33.8 | 0.00 | 0.79 | 0.79 | 52 | 1006.8 |
| 20260506164037 | 17 | 196 | 16.1 | 33.8 | 0.00 | 0.79 | 0.79 | 52 | 1006.7 |
| 20260506163919 | 17 | 200 | 16.1 | 33.8 | 0.00 | 0.79 | 0.79 | 51 | 1006.8 |
| 20260506163819 | 17 | 205 | 17.7 | 33.8 | 0.00 | 0.79 | 0.79 | 51 | 1006.7 |
| 20260506163722 | 17 | 188 | 17.7 | 33.8 | 0.00 | 0.79 | 0.79 | 50 | 1006.7 |
| 20260506163529 | 17 | 176 | 16.1 | 37.0 | 0.00 | 0.79 | 0.79 | 50 | 1006.7 |
| 20260506163420 | 17 | 178 | 14.5 | 37.0 | 0.00 | 0.79 | 0.79 | 51 | 1006.6 |
| 20260506163320 | 17 | 206 | 14.5 | 37.0 | 0.00 | 0.79 | 0.79 | 52 | 1006.6 |
| 20260506163219 | 17 | 226 | 14.5 | 37.0 | 0.00 | 0.79 | 0.79 | 51 | 1006.7 |
| 20260506163038 | 17 | 209 | 14.5 | 37.0 | 0.00 | 0.79 | 0.79 | 52 | 1006.7 |
| 20260506162919 | 17 | 178 | 14.5 | 37.0 | 0.00 | 0.79 | 0.79 | 51 | 1006.7 |
| 20260506162705 | 17 | 182 | 16.1 | 27.4 | 0.00 | 0.79 | 0.79 | 52 | 1006.7 |
| 20260506162603 | 17 | 200 | 16.1 | 27.4 | 0.00 | 0.79 | 0.79 | 52 | 1006.7 |
| 20260506162527 | 17 | 200 | 16.1 | 27.4 | 0.00 | 0.79 | 0.79 | 52 | 1006.7 |
| 20260506162421 | 18 | 192 | 16.1 | 30.6 | 0.00 | 0.79 | 0.79 | 52 | 1006.7 |
| 20260506162039 | 18 | 213 | 17.7 | 30.6 | 0.00 | 0.79 | 0.79 | 50 | 1006.6 |
| 20260506161821 | 18 | 182 | 17.7 | 30.6 | 0.00 | 0.79 | 0.79 | 50 | 1006.7 |
| 20260506161719 | 18 | 227 | 16.1 | 30.6 | 0.00 | 0.79 | 0.79 | 50 | 1006.7 |
| 20260506161527 | 18 | 205 | 14.5 | 29.0 | 0.00 | 0.79 | 0.79 | 49 | 1006.7 |
| 20260506161320 | 18 | 198 | 14.5 | 29.0 | 0.00 | 0.79 | 0.79 | 51 | 1006.8 |
| 20260506161219 | 18 | 190 | 12.9 | 29.0 | 0.00 | 0.79 | 0.79 | 50 | 1006.8 |
| 20260506161119 | 18 | 180 | 11.3 | 22.5 | 0.00 | 0.79 | 0.79 | 49 | 1006.7 |
| 20260506161039 | 18 | 205 | 11.3 | 22.5 | 0.00 | 0.79 | 0.79 | 49 | 1006.8 |
| 20260506160919 | 18 | 198 | 12.9 | 19.3 | 0.00 | 0.79 | 0.79 | 49 | 1006.7 |
| 20260506160821 | 18 | 214 | 12.9 | 27.4 | 0.00 | 0.79 | 0.79 | 51 | 1006.7 |
| 20260506160719 | 18 | 198 | 12.9 | 33.8 | 0.00 | 0.79 | 0.79 | 51 | 1006.7 |
| 20260506160620 | 18 | 165 | 14.5 | 33.8 | 0.00 | 0.79 | 0.79 | 52 | 1006.7 |
| 20260506160528 | 18 | 142 | 12.9 | 33.8 | 0.00 | 0.79 | 0.79 | 52 | 1006.7 |
| 20260506160421 | 18 | 219 | 14.5 | 33.8 | 0.00 | 0.79 | 0.79 | 51 | 1006.5 |
| 20260506160321 | 18 | 196 | 14.5 | 33.8 | 0.00 | 0.79 | 0.79 | 51 | 1006.7 |
| 20260506160219 | 18 | 194 | 14.5 | 33.8 | 0.00 | 0.79 | 0.79 | 51 | 1006.7 |
| 20260506160042 | 18 | 178 | 17.7 | 33.8 | 0.00 | 0.79 | 0.79 | 48 | 1006.7 |
| 20260506155919 | 18 | 189 | 16.1 | 40.2 | 0.00 | 0.79 | 0.79 | 50 | 1006.8 |
| 20260506155819 | 18 | 175 | 14.5 | 32.2 | 0.00 | 0.79 | 0.79 | 50 | 1006.7 |
| 20260506155722 | 18 | 181 | 14.5 | 32.2 | 0.00 | 0.79 | 0.79 | 50 | 1006.8 |
| 20260506155620 | 18 | 192 | 14.5 | 29.0 | 0.00 | 0.79 | 0.79 | 50 | 1006.8 |
| 20260506155527 | 18 | 200 | 16.1 | 29.0 | 0.00 | 0.79 | 0.79 | 51 | 1006.7 |
| 20260506155421 | 18 | 188 | 16.1 | 29.0 | 0.00 | 0.79 | 0.79 | 50 | 1006.8 |
| 20260506155321 | 18 | 180 | 16.1 | 29.0 | 0.00 | 0.79 | 0.79 | 51 | 1006.6 |
| 20260506155219 | 18 | 191 | 16.1 | 29.0 | 0.00 | 0.79 | 0.79 | 49 | 1006.7 |
| 20260506155038 | 18 | 194 | 16.1 | 29.0 | 0.00 | 0.79 | 0.79 | 50 | 1006.8 |
| 20260506154919 | 18 | 194 | 16.1 | 27.4 | 0.00 | 0.79 | 0.79 | 50 | 1006.7 |
| 20260506154820 | 18 | 153 | 17.7 | 27.4 | 0.00 | 0.79 | 0.79 | 49 | 1006.7 |
| 20260506154723 | 18 | 178 | 17.7 | 27.4 | 0.00 | 0.79 | 0.79 | 48 | 1006.8 |
| 20260506154420 | 18 | 193 | 17.7 | 30.6 | 0.00 | 0.79 | 0.79 | 47 | 1006.7 |
| 20260506154221 | 18 | 217 | 17.7 | 30.6 | 0.00 | 0.79 | 0.79 | 47 | 1006.6 |
| 20260506154120 | 18 | 202 | 17.7 | 30.6 | 0.00 | 0.79 | 0.79 | 48 | 1006.8 |
| 20260506154037 | 18 | 185 | 17.7 | 37.0 | 0.00 | 0.79 | 0.79 | 50 | 1006.8 |
| 20260506153821 | 18 | 185 | 17.7 | 37.0 | 0.00 | 0.79 | 0.79 | 47 | 1006.6 |
| 20260506153704 | 18 | 185 | 16.1 | 37.0 | 0.00 | 0.79 | 0.79 | 47 | 1006.7 |
| 20260506153603 | 18 | 182 | 16.1 | 37.0 | 0.00 | 0.79 | 0.79 | 47 | 1006.7 |
| 20260506153502 | 18 | 224 | 16.1 | 37.0 | 0.00 | 0.79 | 0.79 | 48 | 1006.6 |
| 20260506153404 | 18 | 196 | 16.1 | 37.0 | 0.00 | 0.79 | 0.79 | 48 | 1006.6 |
| 20260506153302 | 18 | 144 | 16.1 | 37.0 | 0.00 | 0.79 | 0.79 | 47 | 1006.7 |
| 20260506153203 | 18 | 163 | 14.5 | 37.0 | 0.00 | 0.79 | 0.79 | 46 | 1006.7 |
| 20260506153102 | 19 | 194 | 14.5 | 25.7 | 0.00 | 0.79 | 0.79 | 48 | 1006.7 |
| 20260506153005 | 19 | 197 | 12.9 | 29.0 | 0.00 | 0.79 | 0.79 | 47 | 1006.6 |
| 20260506152902 | 19 | 143 | 12.9 | 24.1 | 0.00 | 0.79 | 0.79 | 48 | 1006.8 |
| 20260506152802 | 19 | 190 | 11.3 | 22.5 | 0.00 | 0.79 | 0.79 | 48 | 1006.8 |
| 20260506152704 | 19 | 179 | 11.3 | 22.5 | 0.00 | 0.79 | 0.79 | 49 | 1006.8 |
| 20260506152502 | 19 | 192 | 11.3 | 20.9 | 0.00 | 0.79 | 0.79 | 49 | 1006.7 |
| 20260506152402 | 19 | 205 | 11.3 | 17.7 | 0.00 | 0.79 | 0.79 | 48 | 1006.7 |
| 20260506152102 | 19 | 211 | 11.3 | 20.9 | 0.00 | 0.79 | 0.79 | 50 | 1006.7 |
| 20260506152004 | 19 | 237 | 11.3 | 20.9 | 0.00 | 0.79 | 0.79 | 48 | 1006.8 |
| 20260506151904 | 19 | 199 | 12.9 | 20.9 | 0.00 | 0.79 | 0.79 | 48 | 1006.7 |
| 20260506151704 | 19 | 229 | 14.5 | 20.9 | 0.00 | 0.79 | 0.79 | 49 | 1006.8 |
| 20260506151602 | 19 | 190 | 14.5 | 25.7 | 0.00 | 0.79 | 0.79 | 48 | 1006.8 |
| 20260506151502 | 19 | 200 | 14.5 | 32.2 | 0.00 | 0.79 | 0.79 | 49 | 1006.8 |
| 20260506151402 | 19 | 169 | 14.5 | 32.2 | 0.00 | 0.79 | 0.79 | 50 | 1006.8 |
| 20260506151304 | 19 | 194 | 14.5 | 32.2 | 0.00 | 0.79 | 0.79 | 48 | 1006.8 |
| 20260506151204 | 19 | 194 | 12.9 | 32.2 | 0.00 | 0.79 | 0.79 | 47 | 1006.9 |
| 20260506151102 | 19 | 215 | 12.9 | 32.2 | 0.00 | 0.79 | 0.79 | 49 | 1006.7 |
| 20260506151004 | 19 | 187 | 12.9 | 32.2 | 0.00 | 0.79 | 0.79 | 47 | 1006.8 |
| 20260506150906 | 19 | 198 | 12.9 | 32.2 | 0.00 | 0.79 | 0.79 | 49 | 1006.9 |
| 20260506150802 | 19 | 171 | 11.3 | 32.2 | 0.00 | 0.79 | 0.79 | 49 | 1006.8 |
| 20260506150604 | 19 | 192 | 11.3 | 25.7 | 0.00 | 0.79 | 0.79 | 48 | 1006.8 |
| 20260506150504 | 19 | 209 | 11.3 | 25.7 | 0.00 | 0.79 | 0.79 | 48 | 1006.9 |
| 20260506150402 | 19 | 191 | 12.9 | 25.7 | 0.00 | 0.79 | 0.79 | 49 | 1006.9 |
| 20260506150221 | 19 | 193 | 12.9 | 25.7 | 0.00 | 0.79 | 0.79 | 49 | 1006.9 |
| 20260506150119 | 19 | 223 | 12.9 | 25.7 | 0.00 | 0.79 | 0.79 | 49 | 1006.9 |
| 20260506150039 | 19 | 196 | 12.9 | 25.7 | 0.00 | 0.79 | 0.79 | 47 | 1006.9 |
| 20260506145819 | 19 | 189 | 12.9 | 25.7 | 0.00 | 0.79 | 0.79 | 49 | 1006.9 |
| 20260506145721 | 19 | 188 | 12.9 | 25.7 | 0.00 | 0.79 | 0.79 | 47 | 1007.0 |
| 20260506145619 | 19 | 185 | 11.3 | 25.7 | 0.00 | 0.79 | 0.79 | 50 | 1007.0 |
| 20260506145419 | 19 | 178 | 11.3 | 20.9 | 0.00 | 0.79 | 0.79 | 49 | 1007.0 |
| 20260506145321 | 19 | 194 | 11.3 | 20.9 | 0.00 | 0.79 | 0.79 | 47 | 1006.9 |
| 20260506145220 | 19 | 210 | 11.3 | 20.9 | 0.00 | 0.79 | 0.79 | 48 | 1006.9 |
| 20260506145036 | 19 | 171 | 9.7 | 20.9 | 0.00 | 0.79 | 0.79 | 50 | 1007.1 |
| 20260506144922 | 19 | 186 | 8.0 | 24.1 | 0.00 | 0.79 | 0.79 | 50 | 1007.0 |
| 20260506144819 | 19 | 207 | 8.0 | 19.3 | 0.00 | 0.79 | 0.79 | 49 | 1007.1 |
| 20260506144721 | 19 | 205 | 8.0 | 19.3 | 0.00 | 0.79 | 0.79 | 50 | 1007.0 |
| 20260506144620 | 19 | 196 | 8.0 | 19.3 | 0.00 | 0.79 | 0.79 | 49 | 1007.0 |
| 20260506144528 | 19 | 192 | 8.0 | 22.5 | 0.00 | 0.79 | 0.79 | 51 | 1007.1 |
| 20260506144220 | 19 | 196 | 9.7 | 29.0 | 0.00 | 0.79 | 0.79 | 51 | 1007.0 |
| 20260506144119 | 19 | 189 | 9.7 | 29.0 | 0.00 | 0.79 | 0.79 | 51 | 1007.1 |
| 20260506143922 | 19 | 214 | 11.3 | 29.0 | 0.00 | 0.79 | 0.79 | 51 | 1007.0 |
| 20260506143819 | 19 | 225 | 11.3 | 29.0 | 0.00 | 0.79 | 0.79 | 49 | 1007.1 |
| 20260506143721 | 19 | 194 | 11.3 | 29.0 | 0.00 | 0.79 | 0.79 | 49 | 1007.1 |
| 20260506143621 | 19 | 215 | 9.7 | 29.0 | 0.00 | 0.79 | 0.79 | 53 | 1007.3 |
| 20260506143419 | 19 | 169 | 9.7 | 29.0 | 0.00 | 0.79 | 0.79 | 50 | 1007.1 |
| 20260506143319 | 19 | 183 | 9.7 | 20.9 | 0.00 | 0.79 | 0.79 | 53 | 1007.0 |
| 20260506143222 | 19 | 208 | 9.7 | 27.4 | 0.00 | 0.79 | 0.79 | 52 | 1007.2 |
| 20260506143119 | 19 | 185 | 11.3 | 27.4 | 0.00 | 0.79 | 0.79 | 51 | 1007.0 |
| 20260506143037 | 19 | 167 | 11.3 | 27.4 | 0.00 | 0.79 | 0.79 | 50 | 1007.2 |
| 20260506142922 | 19 | 194 | 11.3 | 27.4 | 0.00 | 0.79 | 0.79 | 53 | 1007.1 |
| 20260506142819 | 19 | 272 | 11.3 | 27.4 | 0.00 | 0.79 | 0.79 | 51 | 1007.1 |
| 20260506142719 | 19 | 241 | 12.9 | 27.4 | 0.00 | 0.79 | 0.79 | 51 | 1007.3 |
| 20260506142621 | 19 | 213 | 12.9 | 27.4 | 0.00 | 0.79 | 0.79 | 49 | 1007.1 |
| 20260506142529 | 19 | 207 | 12.9 | 27.4 | 0.00 | 0.79 | 0.79 | 55 | 1007.2 |
| 20260506142419 | 19 | 169 | 12.9 | 27.4 | 0.00 | 0.79 | 0.79 | 51 | 1007.3 |
| 20260506142322 | 19 | 162 | 12.9 | 25.7 | 0.00 | 0.79 | 0.79 | 53 | 1007.2 |
| 20260506142219 | 19 | 196 | 12.9 | 25.7 | 0.00 | 0.79 | 0.79 | 50 | 1007.2 |
| 20260506142122 | 19 | 209 | 14.5 | 25.7 | 0.00 | 0.79 | 0.79 | 50 | 1007.2 |
| 20260506141919 | 19 | 159 | 14.5 | 25.7 | 0.00 | 0.79 | 0.79 | 51 | 1007.2 |
| 20260506141819 | 19 | 191 | 12.9 | 25.7 | 0.00 | 0.79 | 0.79 | 53 | 1007.3 |
| 20260506141722 | 19 | 200 | 12.9 | 25.7 | 0.00 | 0.79 | 0.79 | 52 | 1007.2 |
| 20260506141619 | 19 | 195 | 12.9 | 25.7 | 0.00 | 0.79 | 0.79 | 51 | 1007.2 |
| 20260506141529 | 19 | 158 | 12.9 | 24.1 | 0.00 | 0.79 | 0.79 | 52 | 1007.3 |
| 20260506141419 | 19 | 168 | 12.9 | 24.1 | 0.00 | 0.79 | 0.79 | 52 | 1007.2 |
| 20260506141321 | 19 | 148 | 12.9 | 24.1 | 0.00 | 0.79 | 0.79 | 53 | 1007.3 |
| 20260506141219 | 19 | 180 | 14.5 | 24.1 | 0.00 | 0.79 | 0.79 | 51 | 1007.2 |
| 20260506141121 | 19 | 254 | 14.5 | 27.4 | 0.00 | 0.79 | 0.79 | 52 | 1007.2 |
| 20260506141038 | 19 | 171 | 14.5 | 27.4 | 0.00 | 0.79 | 0.79 | 50 | 1007.2 |
| 20260506140919 | 19 | 176 | 14.5 | 27.4 | 0.00 | 0.79 | 0.79 | 55 | 1007.3 |
| 20260506140819 | 19 | 181 | 14.5 | 27.4 | 0.00 | 0.79 | 0.79 | 53 | 1007.4 |
| 20260506140619 | 19 | 196 | 12.9 | 27.4 | 0.00 | 0.79 | 0.79 | 52 | 1007.3 |
| 20260506140528 | 19 | 182 | 14.5 | 27.4 | 0.00 | 0.79 | 0.79 | 55 | 1007.4 |
| 20260506140321 | 19 | 182 | 12.9 | 27.4 | 0.00 | 0.79 | 0.79 | 53 | 1007.3 |
| 20260506140219 | 19 | 190 | 12.9 | 27.4 | 0.00 | 0.79 | 0.79 | 52 | 1007.4 |
| 20260506140040 | 19 | 159 | 11.3 | 27.4 | 0.00 | 0.79 | 0.79 | 52 | 1007.3 |
| 20260506135919 | 19 | 188 | 12.9 | 27.4 | 0.00 | 0.79 | 0.79 | 54 | 1007.4 |
| 20260506135821 | 19 | 198 | 12.9 | 27.4 | 0.00 | 0.79 | 0.79 | 52 | 1007.3 |
| 20260506135720 | 19 | 198 | 12.9 | 27.4 | 0.00 | 0.79 | 0.79 | 50 | 1007.4 |
| 20260506135620 | 19 | 198 | 12.9 | 27.4 | 0.00 | 0.79 | 0.79 | 52 | 1007.4 |
| 20260506135527 | 19 | 213 | 14.5 | 27.4 | 0.00 | 0.79 | 0.79 | 52 | 1007.4 |
| 20260506135421 | 19 | 207 | 14.5 | 27.4 | 0.00 | 0.79 | 0.79 | 50 | 1007.4 |
| 20260506135319 | 19 | 222 | 14.5 | 25.7 | 0.00 | 0.79 | 0.79 | 53 | 1007.4 |
| 20260506135220 | 19 | 197 | 14.5 | 25.7 | 0.00 | 0.79 | 0.79 | 54 | 1007.4 |
| 20260506135037 | 19 | 186 | 16.1 | 29.0 | 0.00 | 0.79 | 0.79 | 53 | 1007.4 |
| 20260506134919 | 19 | 191 | 16.1 | 29.0 | 0.00 | 0.79 | 0.79 | 52 | 1007.5 |
| 20260506134821 | 19 | 186 | 16.1 | 29.0 | 0.00 | 0.79 | 0.79 | 54 | 1007.4 |
| 20260506134720 | 19 | 152 | 16.1 | 29.0 | 0.00 | 0.79 | 0.79 | 54 | 1007.4 |
| 20260506134619 | 19 | 211 | 17.7 | 29.0 | 0.00 | 0.79 | 0.79 | 52 | 1007.5 |
| 20260506134319 | 19 | 199 | 16.1 | 29.0 | 0.00 | 0.79 | 0.79 | 55 | 1007.5 |
| 20260506134221 | 19 | 178 | 16.1 | 29.0 | 0.00 | 0.79 | 0.79 | 53 | 1007.5 |
| 20260506134119 | 19 | 192 | 16.1 | 29.0 | 0.00 | 0.79 | 0.79 | 55 | 1007.5 |
| 20260506134038 | 19 | 203 | 14.5 | 27.4 | 0.00 | 0.79 | 0.79 | 55 | 1007.6 |
| 20260506133720 | 19 | 184 | 14.5 | 30.6 | 0.00 | 0.79 | 0.79 | 54 | 1007.7 |
| 20260506133502 | 19 | 191 | 16.1 | 32.2 | 0.00 | 0.79 | 0.79 | 53 | 1007.6 |
| 20260506133404 | 19 | 187 | 14.5 | 32.2 | 0.00 | 0.79 | 0.79 | 54 | 1007.6 |
| 20260506133302 | 19 | 205 | 14.5 | 32.2 | 0.00 | 0.79 | 0.79 | 55 | 1007.6 |
| 20260506133202 | 19 | 194 | 14.5 | 32.2 | 0.00 | 0.79 | 0.79 | 54 | 1007.5 |
| 20260506133106 | 19 | 194 | 14.5 | 32.2 | 0.00 | 0.79 | 0.79 | 56 | 1007.6 |
| 20260506133004 | 19 | 218 | 16.1 | 32.2 | 0.00 | 0.79 | 0.79 | 57 | 1007.6 |
| 20260506132902 | 19 | 156 | 14.5 | 32.2 | 0.00 | 0.79 | 0.79 | 54 | 1007.6 |
| 20260506132802 | 19 | 184 | 14.5 | 33.8 | 0.00 | 0.79 | 0.79 | 54 | 1007.6 |
| 20260506132602 | 19 | 184 | 12.9 | 29.0 | 0.00 | 0.79 | 0.79 | 55 | 1007.6 |
| 20260506132527 | 19 | 162 | 12.9 | 29.0 | 0.00 | 0.79 | 0.79 | 57 | 1007.6 |
| 20260506132006 | 19 | 144 | 12.9 | 29.0 | 0.00 | 0.79 | 0.79 | 57 | 1007.6 |
| 20260506131902 | 19 | 195 | 14.5 | 24.1 | 0.00 | 0.79 | 0.79 | 57 | 1007.5 |
| 20260506131803 | 19 | 209 | 14.5 | 24.1 | 0.00 | 0.79 | 0.79 | 56 | 1007.6 |
| 20260506131703 | 19 | 175 | 14.5 | 27.4 | 0.00 | 0.79 | 0.79 | 57 | 1007.5 |
| 20260506131606 | 19 | 193 | 14.5 | 27.4 | 0.00 | 0.79 | 0.79 | 56 | 1007.5 |
| 20260506131506 | 19 | 203 | 14.5 | 27.4 | 0.00 | 0.79 | 0.79 | 56 | 1007.7 |
| 20260506131420 | 19 | 201 | 14.5 | 27.4 | 0.00 | 0.79 | 0.79 | 58 | 1007.7 |
| 20260506131321 | 19 | 174 | 12.9 | 37.0 | 0.00 | 0.79 | 0.79 | 58 | 1007.5 |
| 20260506131220 | 19 | 188 | 12.9 | 37.0 | 0.00 | 0.79 | 0.79 | 58 | 1007.6 |